KJ6MC Weather Reports


time (UTC)temp
C
wind
direction
speed
KPH
gust
KPH
rain 1hr
cm
rain 24hr
cm
rain mn
cm
humidity
%
barometer
mb
20260502130738 11 239 3.2 12.9 0.00 0.00 0.00 90 1011.0
20260502130727 11 219 3.2 12.9 0.00 0.00 0.00 90 1011.0
20260502130628 11 223 4.8 12.9 0.00 0.00 0.00 90 1010.9
20260502130526 11 231 4.8 12.9 0.00 0.00 0.00 90 1011.0
20260502130422 11 236 4.8 12.9 0.00 0.00 0.00 90 1011.0
20260502130320 11 235 3.2 12.9 0.00 0.00 0.00 90 1011.0
20260502130220 11 191 3.2 12.9 0.00 0.00 0.00 90 1011.0
20260502130200 11 250 3.2 12.9 0.00 0.00 0.00 90 1011.0
20260502130120 11 236 3.2 12.9 0.00 0.00 0.00 90 1011.0
20260502123806 11 200 1.6 6.4 0.00 0.00 0.00 91 1010.9
20260502123706 11 162 1.6 6.4 0.00 0.00 0.00 91 1010.9
20260502123630 11 200 1.6 6.4 0.00 0.00 0.00 91 1010.9
20260502123604 11 235 1.6 6.4 0.00 0.00 0.00 91 1010.9
20260502123504 11 232 3.2 6.4 0.00 0.00 0.00 91 1010.9
20260502123405 11 195 1.6 6.4 0.00 0.00 0.00 91 1010.9
20260502123304 11 231 1.6 6.4 0.00 0.00 0.00 91 1010.9
20260502123200 11 226 3.2 8.0 0.00 0.00 0.00 91 1010.8
20260502123126 11 228 3.2 8.0 0.00 0.00 0.00 91 1010.8
20260502123058 11 235 3.2 8.0 0.00 0.00 0.00 91 1010.8
20260502122958 11 203 3.2 8.0 0.00 0.00 0.00 91 1010.8
20260502122856 11 200 1.6 8.0 0.00 0.00 0.00 91 1010.8
20260502122756 11 236 1.6 8.0 0.00 0.00 0.00 91 1010.8
20260502122652 11 221 3.2 8.0 0.00 0.00 0.00 91 1010.8
20260502122626 11 217 1.6 8.0 0.00 0.00 0.00 91 1010.8
20260502122551 11 212 1.6 8.0 0.00 0.00 0.00 91 1010.8
20260502122450 11 225 1.6 8.0 0.00 0.00 0.00 91 1010.8
20260502122350 11 232 1.6 8.0 0.00 0.00 0.00 91 1010.8
20260502122248 11 187 1.6 8.0 0.00 0.00 0.00 91 1010.8
20260502122146 11 217 1.6 9.7 0.00 0.00 0.00 91 1010.8
20260502122126 11 150 1.6 9.7 0.00 0.00 0.00 91 1010.8
20260502122042 11 158 3.2 9.7 0.00 0.00 0.00 91 1010.8
20260502121942 11 158 3.2 9.7 0.00 0.00 0.00 91 1010.8
20260502121842 11 221 3.2 9.7 0.00 0.00 0.00 91 1010.7
20260502121742 11 217 3.2 9.7 0.00 0.00 0.00 91 1010.8
20260502121623 11 221 3.2 9.7 0.00 0.00 0.00 91 1010.7
20260502121540 11 221 3.2 9.7 0.00 0.00 0.00 91 1010.8
20260502121440 11 231 3.2 9.7 0.00 0.00 0.00 91 1010.7
20260502121338 11 214 3.2 9.7 0.00 0.00 0.00 91 1010.7
20260502121235 11 216 1.6 9.7 0.00 0.00 0.00 91 1010.8
20260502121146 11 243 1.6 6.4 0.00 0.00 0.00 91 1010.8
20260502121135 11 245 1.6 6.4 0.00 0.00 0.00 91 1010.8
20260502121030 11 226 1.6 6.4 0.00 0.00 0.00 91 1010.7
20260502120930 11 166 1.6 6.4 0.00 0.00 0.00 91 1010.7
20260502120830 11 207 1.6 6.4 0.00 0.00 0.00 91 1010.8
20260502120728 11 214 1.6 6.4 0.00 0.00 0.00 91 1010.8
20260502120624 11 207 1.6 6.4 0.00 0.00 0.00 91 1010.8
20260502120522 11 205 1.6 6.4 0.00 0.00 0.00 91 1010.8
20260502120422 11 205 1.6 6.4 0.00 0.00 0.00 91 1010.8
20260502120322 11 222 0.0 6.4 0.00 0.00 0.00 91 1010.7
20260502120223 11 221 0.0 3.2 0.00 0.00 0.00 91 1010.7
20260502120126 11 215 1.6 4.8 0.00 0.00 0.00 91 1010.8
20260502115920 11 192 0.0 8.0 0.00 0.00 0.00 91 1010.9
20260502115820 11 193 0.0 8.0 0.00 0.00 0.00 91 1010.9
20260502115752 11 193 0.0 8.0 0.00 0.00 0.00 91 1010.8
20260502115720 11 193 0.0 8.0 0.00 0.00 0.00 91 1010.8
20260502115620 11 195 0.0 8.0 0.00 0.00 0.00 91 1010.8
20260502115518 11 207 1.6 8.0 0.00 0.00 0.00 91 1010.8
20260502115418 11 207 1.6 8.0 0.00 0.00 0.00 91 1010.8
20260502115318 11 207 1.6 8.0 0.00 0.00 0.00 91 1010.8
20260502115218 11 207 1.6 8.0 0.00 0.00 0.00 91 1010.8
20260502115122 11 205 0.0 8.0 0.00 0.00 0.00 91 1010.8
20260502115115 11 239 0.0 8.0 0.00 0.00 0.00 91 1010.8
20260502115016 11 167 1.6 4.8 0.00 0.00 0.00 91 1010.8
20260502114912 11 167 1.6 4.8 0.00 0.00 0.00 91 1010.9
20260502114812 11 168 1.6 6.4 0.00 0.00 0.00 91 1010.9
20260502114712 11 154 1.6 6.4 0.00 0.00 0.00 91 1010.9
20260502114612 11 229 1.6 6.4 0.00 0.00 0.00 91 1010.9
20260502114512 11 229 1.6 6.4 0.00 0.00 0.00 91 1010.8
20260502114412 11 195 1.6 6.4 0.00 0.00 0.00 91 1010.9
20260502114311 11 195 1.6 6.4 0.00 0.00 0.00 91 1010.9
20260502114210 11 184 1.6 6.4 0.00 0.00 0.00 91 1010.8
20260502114121 11 215 1.6 6.4 0.00 0.00 0.00 91 1010.9
20260502114110 11 216 1.6 6.4 0.00 0.00 0.00 91 1010.9
20260502113911 11 136 1.6 6.4 0.00 0.00 0.00 91 1010.9
20260502113811 11 200 1.6 4.8 0.00 0.00 0.00 91 1010.9
20260502113708 11 207 1.6 9.7 0.00 0.00 0.00 91 1010.9
20260502113618 11 191 1.6 9.7 0.00 0.00 0.00 91 1010.9
20260502113508 11 226 1.6 9.7 0.00 0.00 0.00 91 1010.9
20260502113408 11 226 1.6 9.7 0.00 0.00 0.00 91 1010.9
20260502113307 11 229 1.6 9.7 0.00 0.00 0.00 91 1010.9
20260502113208 11 229 3.2 9.7 0.00 0.00 0.00 91 1011.0
20260502113119 11 229 3.2 9.7 0.00 0.00 0.00 91 1011.0
20260502113106 11 230 3.2 9.7 0.00 0.00 0.00 91 1011.0
20260502113006 11 229 3.2 9.7 0.00 0.00 0.00 91 1010.9
20260502112906 11 228 3.2 9.7 0.00 0.00 0.00 91 1011.0
20260502112806 11 221 3.2 9.7 0.00 0.00 0.00 91 1011.0
20260502112706 11 144 1.6 4.8 0.00 0.00 0.00 91 1011.1
20260502112619 11 203 1.6 4.8 0.00 0.00 0.00 91 1011.1
20260502112607 11 200 1.6 4.8 0.00 0.00 0.00 91 1011.1
20260502112501 11 226 1.6 4.8 0.00 0.00 0.00 91 1011.1
20260502112400 11 214 1.6 4.8 0.00 0.00 0.00 91 1011.0
20260502112300 11 146 1.6 9.7 0.00 0.00 0.00 91 1011.1
20260502112201 11 161 1.6 9.7 0.00 0.00 0.00 91 1011.0
20260502112117 11 221 1.6 9.7 0.00 0.00 0.00 91 1011.1
20260502112100 11 221 1.6 9.7 0.00 0.00 0.00 91 1011.1
20260502112000 11 217 1.6 9.7 0.00 0.00 0.00 91 1011.1
20260502111900 11 144 1.6 9.7 0.00 0.00 0.00 91 1011.0
20260502111800 11 217 1.6 9.7 0.00 0.00 0.00 91 1011.1
20260502111701 11 215 1.6 9.7 0.00 0.00 0.00 91 1011.1
20260502111615 11 228 1.6 9.7 0.00 0.00 0.00 90 1011.1
20260502111600 11 228 1.6 9.7 0.00 0.00 0.00 90 1011.1
20260502111500 12 248 3.2 9.7 0.00 0.00 0.00 90 1011.1
20260502111400 12 248 3.2 9.7 0.00 0.00 0.00 91 1011.0
20260502111259 12 246 3.2 8.0 0.00 0.00 0.00 90 1011.0
20260502111200 12 177 3.2 8.0 0.00 0.00 0.00 90 1011.0
20260502111117 12 203 3.2 8.0 0.00 0.00 0.00 90 1011.0
20260502111100 12 203 3.2 8.0 0.00 0.00 0.00 90 1011.0
20260502111001 12 214 1.6 8.0 0.00 0.00 0.00 90 1011.0
20260502110901 12 223 1.6 8.0 0.00 0.00 0.00 90 1011.0
20260502110758 12 200 1.6 9.7 0.00 0.00 0.00 90 1011.0
20260502110658 12 204 1.6 9.7 0.00 0.00 0.00 90 1011.0
20260502110616 12 215 1.6 9.7 0.00 0.00 0.00 90 1011.0
20260502110559 12 216 1.6 9.7 0.00 0.00 0.00 90 1011.0
20260502110458 12 226 1.6 9.7 0.00 0.00 0.00 90 1011.0
20260502110358 12 226 1.6 9.7 0.00 0.00 0.00 90 1011.0
20260502110258 12 214 1.6 9.7 0.00 0.00 0.00 90 1011.1
20260502110158 12 198 1.6 9.7 0.00 0.00 0.00 90 1011.0
20260502110115 12 195 1.6 9.7 0.00 0.00 0.00 90 1011.0
20260502110058 12 195 1.6 9.7 0.00 0.00 0.00 90 1011.0
20260502105958 12 228 1.6 9.7 0.00 0.00 0.00 90 1011.0
20260502105858 12 226 3.2 9.7 0.00 0.00 0.00 90 1011.0
20260502105758 12 170 3.2 8.0 0.00 0.00 0.00 90 1011.0
20260502105658 12 193 3.2 8.0 0.00 0.00 0.00 90 1011.0
20260502105617 12 183 3.2 8.0 0.00 0.00 0.00 90 1010.9
20260502105558 12 183 3.2 8.0 0.00 0.00 0.00 90 1010.9
20260502105458 12 226 3.2 8.0 0.00 0.00 0.00 90 1010.9
20260502105352 12 161 3.2 8.0 0.00 0.00 0.00 90 1011.0
20260502105252 12 236 3.2 8.0 0.00 0.00 0.00 90 1010.9
20260502105149 12 237 3.2 8.0 0.00 0.00 0.00 90 1011.0
20260502105121 12 236 3.2 9.7 0.00 0.00 0.00 90 1011.0
20260502105050 12 236 3.2 9.7 0.00 0.00 0.00 90 1011.0
20260502104950 12 233 3.2 9.7 0.00 0.00 0.00 90 1011.0
20260502104844 12 249 3.2 9.7 0.00 0.00 0.00 90 1011.0
20260502104744 12 204 3.2 9.7 0.00 0.00 0.00 90 1011.0
20260502104644 12 248 3.2 9.7 0.00 0.00 0.00 90 1011.0
20260502104614 12 176 3.2 9.7 0.00 0.00 0.00 90 1011.0
20260502104544 12 197 3.2 9.7 0.00 0.00 0.00 90 1011.0
20260502104443 12 248 3.2 9.7 0.00 0.00 0.00 90 1011.0
20260502104338 12 243 3.2 9.7 0.00 0.00 0.00 89 1011.0
20260502104237 12 235 3.2 9.7 0.00 0.00 0.00 89 1011.0
20260502104138 12 239 3.2 9.7 0.00 0.00 0.00 89 1011.0
20260502104113 12 236 3.2 9.7 0.00 0.00 0.00 89 1011.0
20260502104038 12 259 3.2 9.7 0.00 0.00 0.00 89 1011.0
20260502103938 12 257 3.2 9.7 0.00 0.00 0.00 89 1011.1
20260502103839 12 226 3.2 9.7 0.00 0.00 0.00 89 1011.0
20260502103738 12 225 3.2 8.0 0.00 0.00 0.00 89 1011.0
20260502103638 12 232 3.2 8.0 0.00 0.00 0.00 89 1011.0
20260502103613 12 243 3.2 8.0 0.00 0.00 0.00 89 1011.0
20260502103538 12 225 1.6 8.0 0.00 0.00 0.00 89 1011.0
20260502103438 12 228 1.6 8.0 0.00 0.00 0.00 89 1011.0
20260502103338 12 195 1.6 8.0 0.00 0.00 0.00 89 1011.0
20260502103238 12 212 1.6 8.0 0.00 0.00 0.00 89 1011.0
20260502103138 12 216 1.6 8.0 0.00 0.00 0.00 89 1011.0
20260502103112 12 229 1.6 8.0 0.00 0.00 0.00 89 1011.0
20260502103039 12 229 1.6 8.0 0.00 0.00 0.00 89 1010.9
20260502102938 12 229 1.6 8.0 0.00 0.00 0.00 89 1010.9
20260502102838 12 243 1.6 8.0 0.00 0.00 0.00 89 1011.0
20260502102739 12 219 1.6 4.8 0.00 0.00 0.00 89 1011.0
20260502102638 12 221 1.6 4.8 0.00 0.00 0.00 88 1011.0
20260502102610 12 248 1.6 4.8 0.00 0.00 0.00 88 1011.0
20260502102538 12 248 1.6 4.8 0.00 0.00 0.00 88 1011.0
20260502102437 12 248 1.6 4.8 0.00 0.00 0.00 88 1011.0
20260502102336 12 248 1.6 4.8 0.00 0.00 0.00 88 1011.0
20260502102235 12 248 1.6 4.8 0.00 0.00 0.00 88 1011.1
20260502102136 12 171 1.6 4.8 0.00 0.00 0.00 88 1011.0
20260502102110 12 214 1.6 4.8 0.00 0.00 0.00 88 1011.0
20260502102036 12 238 1.6 4.8 0.00 0.00 0.00 88 1011.1
20260502101936 12 223 1.6 4.8 0.00 0.00 0.00 88 1011.1
20260502101836 12 232 1.6 6.4 0.00 0.00 0.00 88 1011.0
20260502101735 12 235 1.6 6.4 0.00 0.00 0.00 88 1011.0
20260502101611 12 212 1.6 6.4 0.00 0.00 0.00 88 1011.0
20260502101534 12 212 1.6 6.4 0.00 0.00 0.00 88 1011.0
20260502101433 12 212 3.2 6.4 0.00 0.00 0.00 88 1011.0
20260502101334 12 212 3.2 6.4 0.00 0.00 0.00 87 1011.0
20260502101230 12 228 3.2 6.4 0.00 0.00 0.00 87 1011.0
20260502101130 12 231 3.2 6.4 0.00 0.00 0.00 87 1011.0
20260502101108 12 210 3.2 6.4 0.00 0.00 0.00 87 1011.0
20260502101030 12 216 3.2 6.4 0.00 0.00 0.00 87 1011.0
20260502100929 12 231 3.2 6.4 0.00 0.00 0.00 87 1011.0
20260502100828 12 234 3.2 6.4 0.00 0.00 0.00 87 1011.0
20260502100728 12 208 3.2 6.4 0.00 0.00 0.00 87 1010.9
20260502100628 12 230 3.2 6.4 0.00 0.00 0.00 87 1010.9
20260502100607 12 229 3.2 6.4 0.00 0.00 0.00 87 1010.9
20260502100528 12 229 3.2 6.4 0.00 0.00 0.00 87 1011.0
20260502100428 12 217 3.2 6.4 0.00 0.00 0.00 87 1010.9
20260502100332 12 160 3.2 6.4 0.00 0.00 0.00 86 1010.9
20260502100328 12 134 3.2 6.4 0.00 0.00 0.00 87 1010.9
20260502100232 12 219 3.2 6.4 0.00 0.00 0.00 87 1010.9
20260502100224 12 236 3.2 6.4 0.00 0.00 0.00 86 1010.9
20260502091517 12 132 0.0 3.2 0.00 0.00 0.00 86 1011.2
20260502091418 12 132 0.0 3.2 0.00 0.00 0.00 86 1011.1
20260502091318 12 132 0.0 3.2 0.00 0.00 0.00 86 1011.2
20260502091219 12 132 0.0 3.2 0.00 0.00 0.00 86 1011.2
20260502091103 12 132 0.0 3.2 0.00 0.00 0.00 86 1011.2
20260502091014 12 132 0.0 3.2 0.00 0.00 0.00 86 1011.2
20260502090914 12 132 0.0 3.2 0.00 0.00 0.00 86 1011.2
20260502090814 12 142 0.0 1.6 0.00 0.00 0.00 86 1011.2
20260502090714 12 143 0.0 1.6 0.00 0.00 0.00 86 1011.2
20260502090604 12 143 0.0 0.0 0.00 0.00 0.00 86 1011.2
20260502090514 12 143 0.0 0.0 0.00 0.00 0.00 86 1011.2
20260502090414 12 143 0.0 0.0 0.00 0.00 0.00 86 1011.2
20260502090314 12 144 0.0 0.0 0.00 0.00 0.00 85 1011.2
20260502090214 12 142 0.0 0.0 0.00 0.00 0.00 85 1011.2
20260502090119 12 143 0.0 0.0 0.00 0.00 0.00 85 1011.2
20260502090109 13 142 0.0 0.0 0.00 0.00 0.00 85 1011.2
20260502071450 14 120 1.6 3.2 0.00 0.00 0.00 83 1011.4
20260502071350 14 118 0.0 3.2 0.00 0.00 0.00 83 1011.3
20260502071250 14 131 0.0 3.2 0.00 0.00 0.00 83 1011.3
20260502071150 14 145 0.0 3.2 0.00 0.00 0.00 82 1011.3
20260502071050 14 145 0.0 3.2 0.00 0.00 0.00 82 1011.3
20260502070950 14 145 0.0 3.2 0.00 0.00 0.00 82 1011.3
20260502070850 14 186 0.0 4.8 0.00 0.00 0.00 82 1011.3
20260502070824 14 219 1.6 4.8 0.00 0.00 0.00 82 1011.3
20260502070750 14 186 1.6 4.8 0.00 0.00 0.00 82 1011.3
20260502070710 14 181 1.6 4.8 0.00 0.00 0.00 82 1011.3
20260502070551 14 219 1.6 4.8 0.00 0.00 0.00 82 1011.3
20260502070450 14 219 1.6 4.8 0.00 0.00 0.00 82 1011.3
20260502070346 14 219 1.6 4.8 0.00 0.00 0.00 82 1011.3
20260502070246 14 219 1.6 4.8 0.00 0.00 0.00 82 1011.3
20260502070145 15 221 1.6 4.8 0.00 0.00 0.00 82 1011.3
20260502070107 15 221 1.6 6.4 0.00 0.00 0.00 82 1011.3
20260502070046 15 168 1.6 6.4 0.00 0.00 0.00 82 1011.2
20260502065947 15 194 3.2 9.7 0.00 0.00 0.00 82 1011.3
20260502065846 15 165 3.2 9.7 0.00 0.00 0.00 82 1011.2
20260502065746 15 155 3.2 9.7 0.00 0.00 0.00 82 1011.2
20260502065647 15 219 3.2 9.7 0.00 0.00 0.00 82 1011.2
20260502065546 15 210 3.2 9.7 0.00 0.00 0.00 82 1011.2
20260502065446 15 193 3.2 9.7 0.00 0.00 0.00 82 1011.2
20260502065345 15 193 3.2 9.7 0.00 0.00 0.00 82 1011.2
20260502065244 15 200 3.2 9.7 0.00 0.00 0.00 82 1011.2
20260502065138 15 228 1.6 9.7 0.00 0.00 0.00 82 1011.2
20260502065100 15 229 1.6 9.7 0.00 0.00 0.00 82 1011.2
20260502065039 15 231 1.6 9.7 0.00 0.00 0.00 82 1011.2
20260502064938 15 223 1.6 8.0 0.00 0.00 0.00 82 1011.2
20260502064838 15 235 0.0 8.0 0.00 0.00 0.00 82 1011.2
20260502064739 15 217 0.0 4.8 0.00 0.00 0.00 82 1011.2
20260502064636 15 219 0.0 3.2 0.00 0.00 0.00 82 1011.2
20260502064536 15 160 0.0 3.2 0.00 0.00 0.00 82 1011.2
20260502064436 15 161 0.0 3.2 0.00 0.00 0.00 82 1011.2
20260502064335 15 160 0.0 3.2 0.00 0.00 0.00 82 1011.2
20260502064309 15 211 0.0 1.6 0.00 0.00 0.00 82 1011.2
20260502064233 15 117 0.0 1.6 0.00 0.00 0.00 82 1011.2
20260502064158 15 117 0.0 1.6 0.00 0.00 0.00 82 1011.2
20260502064026 15 212 0.0 1.6 0.00 0.00 0.00 82 1011.2
20260502063926 15 211 0.0 1.6 0.00 0.00 0.00 82 1011.2
20260502063826 15 212 0.0 1.6 0.00 0.00 0.00 82 1011.2
20260502063727 15 211 0.0 1.6 0.00 0.00 0.00 82 1011.2
20260502063627 15 175 0.0 1.6 0.00 0.00 0.00 82 1011.2
20260502063525 15 175 0.0 3.2 0.00 0.00 0.00 82 1011.2
20260502063424 15 133 0.0 3.2 0.00 0.00 0.00 81 1011.2
20260502063322 15 132 0.0 3.2 0.00 0.00 0.00 82 1011.2
20260502063220 15 134 0.0 3.2 0.00 0.00 0.00 82 1011.2
20260502063121 15 134 0.0 3.2 0.00 0.00 0.00 81 1011.2
20260502063018 15 134 0.0 3.2 0.00 0.00 0.00 81 1011.1
20260502062923 15 146 0.0 3.2 0.00 0.00 0.00 81 1011.2
20260502062816 15 146 0.0 3.2 0.00 0.00 0.00 81 1011.2
20260502062714 15 146 0.0 3.2 0.00 0.00 0.00 81 1011.2
20260502062614 15 133 0.0 3.2 0.00 0.00 0.00 81 1011.2
20260502062512 15 132 0.0 3.2 0.00 0.00 0.00 81 1011.1
20260502062412 15 132 0.0 1.6 0.00 0.00 0.00 81 1011.1
20260502062310 15 132 0.0 1.6 0.00 0.00 0.00 81 1011.1
20260502062208 15 132 0.0 3.2 0.00 0.00 0.00 80 1011.1
20260502062106 15 132 0.0 3.2 0.00 0.00 0.00 80 1011.1
20260502062028 15 133 1.6 3.2 0.00 0.00 0.00 80 1011.1
20260502062006 15 132 1.6 3.2 0.00 0.00 0.00 80 1011.1
20260502061906 15 133 1.6 6.4 0.00 0.00 0.00 80 1011.1
20260502061805 15 132 1.6 6.4 0.00 0.00 0.00 80 1011.1
20260502061752 15 225 1.6 8.0 0.00 0.00 0.00 80 1011.1
20260502061702 15 132 1.6 6.4 0.00 0.00 0.00 80 1011.1
20260502061558 15 151 1.6 8.0 0.00 0.00 0.00 80 1011.1
20260502061457 15 225 1.6 8.0 0.00 0.00 0.00 80 1011.1
20260502061356 15 225 3.2 8.0 0.00 0.00 0.00 80 1011.1
20260502061300 15 221 3.2 8.0 0.00 0.00 0.00 80 1011.1
20260502061251 15 210 3.2 11.3 0.00 0.00 0.00 80 1011.1
20260502061157 15 223 3.2 11.3 0.00 0.00 0.00 80 1011.1
20260502061136 15 228 3.2 11.3 0.00 0.00 0.00 80 1011.1
20260502060954 15 219 3.2 11.3 0.00 0.00 0.00 79 1011.1
20260502060854 15 229 3.2 11.3 0.00 0.00 0.00 79 1011.1
20260502060752 15 229 3.2 11.3 0.00 0.00 0.00 79 1011.0
20260502060650 15 248 3.2 11.3 0.00 0.00 0.00 79 1011.0
20260502060525 15 236 3.2 11.3 0.00 0.00 0.00 79 1011.0
20260502060444 15 233 3.2 11.3 0.00 0.00 0.00 79 1011.1
20260502060344 16 237 3.2 11.3 0.00 0.00 0.00 79 1011.1
20260502060245 16 245 3.2 11.3 0.00 0.00 0.00 79 1011.1
20260502060144 16 193 3.2 11.3 0.00 0.00 0.00 79 1011.1
20260502060044 16 225 3.2 11.3 0.00 0.00 0.00 79 1011.1
20260502060026 16 219 3.2 11.3 0.00 0.00 0.00 79 1011.1
20260502055942 16 229 3.2 11.3 0.00 0.00 0.00 79 1011.1
20260502055842 16 234 3.2 11.3 0.00 0.00 0.00 79 1011.1
20260502055741 16 217 3.2 11.3 0.00 0.00 0.00 79 1011.0
20260502055640 16 222 3.2 11.3 0.00 0.00 0.00 79 1011.1
20260502055534 16 235 3.2 11.3 0.00 0.00 0.00 79 1011.1
20260502055524 16 250 3.2 11.3 0.00 0.00 0.00 79 1011.1
20260502055432 16 204 3.2 11.3 0.00 0.00 0.00 79 1011.0
20260502055333 16 194 3.2 11.3 0.00 0.00 0.00 79 1011.1
20260502055232 16 230 3.2 11.3 0.00 0.00 0.00 79 1011.1
20260502055132 16 135 3.2 11.3 0.00 0.00 0.00 79 1011.1
20260502055022 16 217 3.2 11.3 0.00 0.00 0.00 79 1011.1
20260502054926 16 211 3.2 11.3 0.00 0.00 0.00 79 1011.1
20260502054826 16 232 3.2 11.3 0.00 0.00 0.00 79 1011.1
20260502054745 16 226 3.2 12.9 0.00 0.00 0.00 79 1011.1
20260502054728 16 204 3.2 12.9 0.00 0.00 0.00 79 1011.1
20260502054642 16 227 3.2 12.9 0.00 0.00 0.00 79 1011.1
20260502054632 16 226 3.2 12.9 0.00 0.00 0.00 79 1011.1
20260502054424 16 249 3.2 12.9 0.00 0.00 0.00 79 1011.1
20260502054322 16 232 4.8 12.9 0.00 0.00 0.00 79 1011.0
20260502054223 16 238 4.8 12.9 0.00 0.00 0.00 79 1011.1
20260502054120 16 222 4.8 12.9 0.00 0.00 0.00 79 1011.1
20260502054036 16 228 4.8 12.9 0.00 0.00 0.00 79 1011.1
20260502053914 16 240 4.8 12.9 0.00 0.00 0.00 79 1011.1
20260502053814 16 217 4.8 12.9 0.00 0.00 0.00 79 1011.0
20260502053715 16 253 4.8 12.9 0.00 0.00 0.00 79 1011.1
20260502053614 16 205 4.8 12.9 0.00 0.00 0.00 79 1011.1
20260502053520 16 218 6.4 17.7 0.00 0.00 0.00 79 1011.1
20260502053510 16 239 6.4 17.7 0.00 0.00 0.00 79 1011.1
20260502053408 16 200 6.4 17.7 0.00 0.00 0.00 79 1011.1
20260502053308 16 238 6.4 17.7 0.00 0.00 0.00 78 1011.1
20260502053208 16 232 6.4 17.7 0.00 0.00 0.00 78 1011.1
20260502053108 16 155 6.4 17.7 0.00 0.00 0.00 78 1011.1
20260502053021 16 219 6.4 17.7 0.00 0.00 0.00 78 1011.1
20260502053004 16 217 6.4 17.7 0.00 0.00 0.00 78 1011.1
20260502052903 16 226 6.4 17.7 0.00 0.00 0.00 78 1011.1
20260502052802 16 242 6.4 17.7 0.00 0.00 0.00 78 1011.1
20260502052745 16 233 4.8 16.1 0.00 0.00 0.00 78 1011.1
20260502052702 16 240 6.4 17.7 0.00 0.00 0.00 78 1011.1
20260502052630 16 210 6.4 17.7 0.00 0.00 0.00 78 1011.1
20260502052457 16 208 4.8 16.1 0.00 0.00 0.00 78 1011.1
20260502052356 16 246 4.8 14.5 0.00 0.00 0.00 78 1011.1
20260502052256 16 174 4.8 14.5 0.00 0.00 0.00 78 1011.0
20260502052156 16 243 4.8 14.5 0.00 0.00 0.00 78 1011.1
20260502052056 16 253 4.8 14.5 0.00 0.00 0.00 78 1011.0
20260502052019 16 240 4.8 14.5 0.00 0.00 0.00 78 1011.0
20260502051950 16 240 4.8 14.5 0.00 0.00 0.00 78 1011.0
20260502051850 16 228 4.8 14.5 0.00 0.00 0.00 78 1011.0
20260502051750 16 225 4.8 14.5 0.00 0.00 0.00 78 1011.0
20260502051651 16 228 4.8 14.5 0.00 0.00 0.00 78 1011.0
20260502051550 16 250 4.8 14.5 0.00 0.00 0.00 78 1011.0
20260502051519 16 237 4.8 14.5 0.00 0.00 0.00 78 1011.0
20260502051444 16 217 6.4 14.5 0.00 0.00 0.00 78 1011.0
20260502051344 16 211 6.4 14.5 0.00 0.00 0.00 77 1011.0
20260502051252 16 234 6.4 14.5 0.00 0.00 0.00 77 1011.0
20260502051245 16 236 6.4 14.5 0.00 0.00 0.00 77 1011.0
20260502051144 16 229 6.4 14.5 0.00 0.00 0.00 77 1011.0
20260502051129 16 238 6.4 14.5 0.00 0.00 0.00 77 1011.0
20260502050943 17 228 6.4 14.5 0.00 0.00 0.00 77 1011.0
20260502050843 17 232 6.4 14.5 0.00 0.00 0.00 77 1011.0
20260502050742 17 190 6.4 14.5 0.00 0.00 0.00 77 1011.0
20260502050642 17 233 6.4 14.5 0.00 0.00 0.00 77 1010.9
20260502050543 17 203 6.4 14.5 0.00 0.00 0.00 77 1010.9
20260502050528 17 223 6.4 14.5 0.00 0.00 0.00 77 1010.9
20260502050443 17 242 6.4 14.5 0.00 0.00 0.00 77 1011.0
20260502050342 17 264 6.4 16.1 0.00 0.00 0.00 77 1011.0
20260502050242 17 224 6.4 16.1 0.00 0.00 0.00 77 1011.0
20260502050144 17 236 6.4 16.1 0.00 0.00 0.00 77 1011.0
20260502050043 17 245 6.4 16.1 0.00 0.00 0.00 77 1010.9
20260502050017 17 237 6.4 16.1 0.00 0.00 0.00 77 1010.9
20260502045944 17 229 6.4 16.1 0.00 0.00 0.00 77 1010.9
20260502045842 17 212 6.4 16.1 0.00 0.00 0.00 77 1010.9
20260502045744 17 232 6.4 16.1 0.00 0.00 0.00 77 1011.0
20260502045642 17 246 6.4 16.1 0.00 0.00 0.00 77 1011.0
20260502045542 17 224 6.4 16.1 0.00 0.00 0.00 76 1011.0
20260502045518 17 248 6.4 16.1 0.00 0.00 0.00 76 1011.0
20260502045442 17 233 6.4 16.1 0.00 0.00 0.00 76 1011.0
20260502045344 17 255 6.4 12.9 0.00 0.00 0.00 77 1011.0
20260502045244 17 239 6.4 12.9 0.00 0.00 0.00 76 1010.9
20260502045237 17 243 6.4 12.9 0.00 0.00 0.00 77 1011.0
20260502045226 17 235 6.4 14.5 0.00 0.00 0.00 76 1010.9
20260502045137 17 266 6.4 12.9 0.00 0.00 0.00 76 1011.0
20260502045127 17 228 6.4 12.9 0.00 0.00 0.00 76 1010.9
20260502044936 17 262 6.4 12.9 0.00 0.00 0.00 76 1010.9
20260502044849 17 246 6.4 14.5 0.00 0.00 0.00 76 1011.0
20260502044733 17 226 6.4 14.5 0.00 0.00 0.00 76 1011.0
20260502044630 17 236 6.4 14.5 0.00 0.00 0.00 76 1010.9
20260502044620 17 232 6.4 14.5 0.00 0.00 0.00 76 1010.9
20260502044431 17 225 6.4 14.5 0.00 0.00 0.00 76 1010.9
20260502044330 17 235 6.4 14.5 0.00 0.00 0.00 76 1010.9
20260502044227 17 236 6.4 14.5 0.00 0.00 0.00 76 1010.9
20260502044124 17 224 6.4 14.5 0.00 0.00 0.00 76 1010.9
20260502044024 17 229 6.4 14.5 0.00 0.00 0.00 76 1010.8
20260502044005 17 219 6.4 14.5 0.00 0.00 0.00 76 1010.8
20260502043925 17 217 6.4 14.5 0.00 0.00 0.00 75 1010.9
20260502043825 17 240 6.4 14.5 0.00 0.00 0.00 76 1010.9
20260502043723 17 219 6.4 14.5 0.00 0.00 0.00 75 1010.9
20260502043622 17 239 6.4 14.5 0.00 0.00 0.00 75 1010.9
20260502043522 18 228 6.4 14.5 0.00 0.00 0.00 75 1010.9
20260502043458 18 212 6.4 14.5 0.00 0.00 0.00 75 1010.9
20260502043420 18 212 6.4 14.5 0.00 0.00 0.00 75 1010.8
20260502043319 18 242 6.4 14.5 0.00 0.00 0.00 75 1010.9
20260502043213 18 228 6.4 14.5 0.00 0.00 0.00 75 1010.8
20260502043112 18 256 6.4 14.5 0.00 0.00 0.00 75 1010.8
20260502043012 18 250 6.4 14.5 0.00 0.00 0.00 75 1010.8
20260502042952 18 226 6.4 14.5 0.00 0.00 0.00 75 1010.8
20260502042912 18 250 6.4 14.5 0.00 0.00 0.00 75 1010.8
20260502042813 18 242 6.4 14.5 0.00 0.00 0.00 75 1010.8
20260502042706 18 250 6.4 12.9 0.00 0.00 0.00 75 1010.8
20260502042606 18 231 6.4 12.9 0.00 0.00 0.00 75 1010.8
20260502042507 18 253 4.8 12.9 0.00 0.00 0.00 75 1010.8
20260502042447 18 248 4.8 12.9 0.00 0.00 0.00 75 1010.7
20260502042407 18 240 4.8 12.9 0.00 0.00 0.00 75 1010.7
20260502042306 18 218 4.8 12.9 0.00 0.00 0.00 75 1010.7
20260502042202 18 225 4.8 12.9 0.00 0.00 0.00 74 1010.7
20260502042101 18 264 4.8 11.3 0.00 0.00 0.00 75 1010.7
20260502042000 18 231 4.8 14.5 0.00 0.00 0.00 74 1010.7
20260502041941 18 200 4.8 14.5 0.00 0.00 0.00 74 1010.7
20260502041900 18 240 4.8 14.5 0.00 0.00 0.00 74 1010.7
20260502041800 18 236 4.8 14.5 0.00 0.00 0.00 74 1010.6
20260502041654 18 230 4.8 16.1 0.00 0.00 0.00 74 1010.7
20260502041554 18 217 4.8 16.1 0.00 0.00 0.00 74 1010.6
20260502041454 18 222 4.8 16.1 0.00 0.00 0.00 74 1010.6
20260502041433 18 235 4.8 16.1 0.00 0.00 0.00 74 1010.7
20260502041354 18 243 4.8 16.1 0.00 0.00 0.00 74 1010.7
20260502041254 18 222 6.4 16.1 0.00 0.00 0.00 74 1010.6
20260502041148 18 269 6.4 16.1 0.00 0.00 0.00 74 1010.6
20260502041128 18 257 6.4 16.1 0.00 0.00 0.00 73 1010.6
20260502041055 18 268 6.4 16.1 0.00 0.00 0.00 73 1010.6
20260502041047 18 224 6.4 16.1 0.00 0.00 0.00 73 1010.7
20260502041036 18 245 6.4 16.1 0.00 0.00 0.00 73 1010.7
20260502040848 18 259 6.4 16.1 0.00 0.00 0.00 73 1010.7
20260502040757 18 225 6.4 16.1 0.00 0.00 0.00 73 1010.7
20260502040642 18 217 6.4 16.1 0.00 0.00 0.00 73 1010.6
20260502040543 18 212 6.4 16.1 0.00 0.00 0.00 73 1010.6
20260502040533 18 241 6.4 16.1 0.00 0.00 0.00 73 1010.6
20260502040342 18 241 6.4 16.1 0.00 0.00 0.00 73 1010.6
20260502040242 19 248 6.4 16.1 0.00 0.00 0.00 73 1010.6
20260502040143 19 262 4.8 12.9 0.00 0.00 0.00 73 1010.5
20260502040137 19 274 6.4 16.1 0.00 0.00 0.00 73 1010.4
20260502040038 19 208 6.4 16.1 0.00 0.00 0.00 73 1010.4
20260502040029 19 238 4.8 16.1 0.00 0.00 0.00 73 1010.5
20260502035836 19 240 6.4 12.9 0.00 0.00 0.00 73 1010.4
20260502035736 19 243 4.8 12.9 0.00 0.00 0.00 72 1010.4
20260502035639 19 174 6.4 12.9 0.00 0.00 0.00 72 1010.4
20260502035630 19 226 6.4 12.9 0.00 0.00 0.00 72 1010.4
20260502035531 19 233 6.4 12.9 0.00 0.00 0.00 72 1010.4
20260502035523 19 223 6.4 12.9 0.00 0.00 0.00 72 1010.4
20260502035331 19 235 6.4 12.9 0.00 0.00 0.00 72 1010.4
20260502035230 19 239 6.4 12.9 0.00 0.00 0.00 72 1010.3
20260502035131 20 250 6.4 12.9 0.00 0.00 0.00 71 1010.3
20260502035125 20 236 6.4 12.9 0.00 0.00 0.00 72 1010.3
20260502035032 20 242 6.4 12.9 0.00 0.00 0.00 71 1010.3
20260502035024 20 263 6.4 12.9 0.00 0.00 0.00 71 1010.3
20260502034824 20 259 6.4 12.9 0.00 0.00 0.00 71 1010.3
20260502034727 20 240 6.4 12.9 0.00 0.00 0.00 71 1010.3
20260502034620 20 226 6.4 12.9 0.00 0.00 0.00 71 1010.3
20260502034519 20 240 6.4 17.7 0.00 0.00 0.00 70 1010.2
20260502034418 20 250 6.4 17.7 0.00 0.00 0.00 70 1010.3
20260502034358 20 256 6.4 17.7 0.00 0.00 0.00 70 1010.3
20260502034319 20 233 4.8 17.7 0.00 0.00 0.00 70 1010.3
20260502034218 20 243 6.4 17.7 0.00 0.00 0.00 70 1010.2
20260502034112 20 222 6.4 17.7 0.00 0.00 0.00 70 1010.2
20260502034012 20 219 6.4 17.7 0.00 0.00 0.00 70 1010.2
20260502033912 20 240 6.4 17.7 0.00 0.00 0.00 69 1010.2
20260502033855 20 222 6.4 17.7 0.00 0.00 0.00 69 1010.2
20260502033812 20 221 6.4 17.7 0.00 0.00 0.00 69 1010.2
20260502033712 20 188 6.4 17.7 0.00 0.00 0.00 69 1010.2
20260502033608 20 226 6.4 17.7 0.00 0.00 0.00 69 1010.2
20260502033510 20 250 4.8 12.9 0.00 0.00 0.00 69 1010.2
20260502033409 20 246 4.8 12.9 0.00 0.00 0.00 69 1010.1
20260502033347 20 231 4.8 12.9 0.00 0.00 0.00 69 1010.1
20260502033309 20 242 4.8 14.5 0.00 0.00 0.00 69 1010.1
20260502033100 21 246 4.8 14.5 0.00 0.00 0.00 68 1010.0
20260502033000 21 241 4.8 14.5 0.00 0.00 0.00 68 1010.0
20260502032900 21 215 4.8 14.5 0.00 0.00 0.00 68 1010.0
20260502032840 21 245 4.8 14.5 0.00 0.00 0.00 68 1010.0
20260502032800 21 222 4.8 14.5 0.00 0.00 0.00 68 1010.0
20260502032700 21 236 6.4 14.5 0.00 0.00 0.00 68 1010.0
20260502032554 21 236 6.4 14.5 0.00 0.00 0.00 68 1010.0
20260502032455 21 235 6.4 14.5 0.00 0.00 0.00 67 1010.0
20260502032354 21 246 6.4 14.5 0.00 0.00 0.00 67 1010.0
20260502032335 21 203 6.4 14.5 0.00 0.00 0.00 67 1010.0
20260502032254 21 253 6.4 14.5 0.00 0.00 0.00 67 1010.0
20260502032154 21 235 6.4 14.5 0.00 0.00 0.00 67 1010.0
20260502032059 21 243 6.4 14.5 0.00 0.00 0.00 67 1009.9
20260502032050 21 264 6.4 14.5 0.00 0.00 0.00 68 1009.9
20260502031950 21 232 6.4 14.5 0.00 0.00 0.00 67 1009.9
20260502031939 21 253 6.4 14.5 0.00 0.00 0.00 67 1009.9
20260502031749 21 231 6.4 14.5 0.00 0.00 0.00 67 1009.9
20260502031649 21 239 4.8 14.5 0.00 0.00 0.00 67 1009.9
20260502031542 21 228 4.8 11.3 0.00 0.00 0.00 67 1009.9
20260502031442 21 213 6.4 12.9 0.00 0.00 0.00 67 1009.8
20260502031343 21 204 6.4 12.9 0.00 0.00 0.00 67 1009.9
20260502031323 21 215 6.4 12.9 0.00 0.00 0.00 67 1009.9
20260502031242 21 229 4.8 12.9 0.00 0.00 0.00 66 1009.9
20260502031142 21 233 4.8 12.9 0.00 0.00 0.00 66 1009.9
20260502031046 21 245 4.8 12.9 0.00 0.00 0.00 65 1009.9
20260502031038 21 245 4.8 12.9 0.00 0.00 0.00 66 1009.8
20260502030939 21 239 4.8 12.9 0.00 0.00 0.00 66 1009.8
20260502030926 21 233 4.8 12.9 0.00 0.00 0.00 65 1009.9
20260502030738 21 232 4.8 12.9 0.00 0.00 0.00 65 1009.8
20260502030637 22 228 6.4 12.9 0.00 0.00 0.00 65 1009.8
20260502030540 22 243 6.4 14.5 0.00 0.00 0.00 65 1009.8
20260502030530 22 246 6.4 12.9 0.00 0.00 0.00 65 1009.8
20260502030431 22 217 4.8 14.5 0.00 0.00 0.00 65 1009.8
20260502030421 22 235 6.4 14.5 0.00 0.00 0.00 65 1009.8
20260502030230 22 241 6.4 14.5 0.00 0.00 0.00 65 1009.8
20260502030131 22 215 6.4 14.5 0.00 0.00 0.00 65 1009.8
20260502030024 22 238 6.4 14.5 0.00 0.00 0.00 65 1009.8
20260502025924 22 245 6.4 14.5 0.00 0.00 0.00 65 1009.8
20260502025825 22 240 6.4 14.5 0.00 0.00 0.00 65 1009.8
20260502025811 22 231 6.4 14.5 0.00 0.00 0.00 65 1009.8
20260502025727 22 236 6.4 14.5 0.00 0.00 0.00 65 1009.8
20260502025624 22 193 6.4 14.5 0.00 0.00 0.00 65 1009.8
20260502025520 22 245 6.4 14.5 0.00 0.00 0.00 65 1009.7
20260502025418 22 236 6.4 16.1 0.00 0.00 0.00 65 1009.8
20260502025321 22 234 6.4 16.1 0.00 0.00 0.00 64 1009.7
20260502025310 22 236 6.4 16.1 0.00 0.00 0.00 64 1009.7
20260502025218 22 233 6.4 16.1 0.00 0.00 0.00 64 1009.7
20260502025118 22 216 6.4 16.1 0.00 0.00 0.00 64 1009.7
20260502025013 22 235 6.4 16.1 0.00 0.00 0.00 64 1009.7
20260502024912 22 224 8.0 16.1 0.00 0.00 0.00 63 1009.7
20260502024817 22 228 8.0 16.1 0.00 0.00 0.00 63 1009.7
20260502024713 22 245 8.0 16.1 0.00 0.00 0.00 63 1009.7
20260502024612 22 210 8.0 16.1 0.00 0.00 0.00 63 1009.8
20260502024507 22 231 8.0 17.7 0.00 0.00 0.00 63 1009.7
20260502024406 22 228 8.0 17.7 0.00 0.00 0.00 62 1009.8
20260502024313 22 235 8.0 17.7 0.00 0.00 0.00 62 1009.8
20260502024307 22 232 8.0 17.7 0.00 0.00 0.00 62 1009.8
20260502024206 22 194 8.0 17.7 0.00 0.00 0.00 62 1009.7
20260502024106 22 233 8.0 17.7 0.00 0.00 0.00 61 1009.8
20260502024000 22 222 8.0 17.7 0.00 0.00 0.00 61 1009.8
20260502023900 22 229 8.0 17.7 0.00 0.00 0.00 61 1009.8
20260502023807 23 295 8.0 17.7 0.00 0.00 0.00 61 1009.8
20260502023800 23 239 8.0 17.7 0.00 0.00 0.00 61 1009.8
20260502023701 23 243 8.0 17.7 0.00 0.00 0.00 61 1009.7
20260502023600 23 191 8.0 17.7 0.00 0.00 0.00 61 1009.8
20260502023527 23 262 8.0 14.5 0.00 0.00 0.00 60 1009.7
20260502023456 23 235 8.0 14.5 0.00 0.00 0.00 61 1009.7
20260502023420 23 242 8.0 14.5 0.00 0.00 0.00 60 1009.7
20260502023256 23 224 8.0 14.5 0.00 0.00 0.00 60 1009.7
20260502023156 23 235 6.4 14.5 0.00 0.00 0.00 60 1009.7
20260502023054 23 211 6.4 12.9 0.00 0.00 0.00 60 1009.6
20260502022950 23 218 6.4 12.9 0.00 0.00 0.00 59 1009.6
20260502022849 23 233 6.4 12.9 0.00 0.00 0.00 59 1009.6
20260502022807 23 228 6.4 14.5 0.00 0.00 0.00 59 1009.6
20260502022748 23 252 6.4 14.5 0.00 0.00 0.00 59 1009.6
20260502022648 23 226 6.4 14.5 0.00 0.00 0.00 59 1009.6
20260502022548 23 233 6.4 14.5 0.00 0.00 0.00 58 1009.6
20260502022443 23 210 4.8 14.5 0.00 0.00 0.00 58 1009.6
20260502022342 23 210 4.8 14.5 0.00 0.00 0.00 58 1009.6
20260502022308 23 239 4.8 14.5 0.00 0.00 0.00 58 1009.6
20260502022254 23 224 4.8 16.1 0.00 0.00 0.00 57 1009.6
20260502022242 23 262 4.8 14.5 0.00 0.00 0.00 58 1009.6
20260502022147 23 208 4.8 14.5 0.00 0.00 0.00 58 1009.6
20260502022138 23 198 4.8 16.1 0.00 0.00 0.00 58 1009.6
20260502021938 23 217 4.8 16.1 0.00 0.00 0.00 57 1009.6
20260502021919 23 253 4.8 16.1 0.00 0.00 0.00 57 1009.6
20260502021737 23 238 4.8 16.1 0.00 0.00 0.00 57 1009.6
20260502021636 23 226 4.8 16.1 0.00 0.00 0.00 56 1009.5
20260502021536 23 225 4.8 16.1 0.00 0.00 0.00 56 1009.6
20260502021430 23 245 4.8 16.1 0.00 0.00 0.00 56 1009.6
20260502021330 23 224 4.8 16.1 0.00 0.00 0.00 56 1009.6
20260502021308 23 264 4.8 16.1 0.00 0.00 0.00 55 1009.6
20260502021230 23 219 4.8 16.1 0.00 0.00 0.00 56 1009.6
20260502021130 23 250 3.2 12.9 0.00 0.00 0.00 56 1009.6
20260502021030 23 221 3.2 12.9 0.00 0.00 0.00 56 1009.6
20260502020926 23 203 3.2 12.9 0.00 0.00 0.00 56 1009.5
20260502020807 23 212 3.2 12.9 0.00 0.00 0.00 56 1009.6
20260502020727 24 208 3.2 12.9 0.00 0.00 0.00 55 1009.6
20260502020627 24 212 3.2 12.9 0.00 0.00 0.00 55 1009.5
20260502020530 24 218 4.8 9.7 0.00 0.00 0.00 55 1009.5
20260502020524 24 224 3.2 9.7 0.00 0.00 0.00 55 1009.5
20260502020427 24 181 4.8 9.7 0.00 0.00 0.00 55 1009.5
20260502020419 24 229 4.8 9.7 0.00 0.00 0.00 55 1009.5
20260502020218 24 236 4.8 9.7 0.00 0.00 0.00 55 1009.6
20260502020118 24 239 4.8 9.7 0.00 0.00 0.00 54 1009.5
20260502020018 24 233 4.8 9.7 0.00 0.00 0.00 54 1009.6
20260502015919 24 233 4.8 9.7 0.00 0.00 0.00 54 1009.5
20260502015818 24 217 6.4 9.7 0.00 0.00 0.00 54 1009.5
20260502015807 24 161 6.4 9.7 0.00 0.00 0.00 54 1009.5
20260502015717 24 228 6.4 9.7 0.00 0.00 0.00 53 1009.5
20260502015616 24 222 4.8 9.7 0.00 0.00 0.00 53 1009.5
20260502015516 24 204 4.8 9.7 0.00 0.00 0.00 53 1009.5
20260502015416 24 231 4.8 9.7 0.00 0.00 0.00 53 1009.6
20260502015308 24 245 4.8 9.7 0.00 0.00 0.00 52 1009.5
20260502015213 24 239 4.8 9.7 0.00 0.00 0.00 53 1009.5
20260502015112 24 158 4.8 9.7 0.00 0.00 0.00 52 1009.5
20260502015012 24 238 4.8 9.7 0.00 0.00 0.00 52 1009.5
20260502014914 24 239 4.8 9.7 0.00 0.00 0.00 52 1009.6
20260502014829 24 160 4.8 14.5 0.00 0.00 0.00 52 1009.6
20260502014819 24 162 4.8 14.5 0.00 0.00 0.00 52 1009.6
20260502014710 24 221 4.8 14.5 0.00 0.00 0.00 51 1009.5
20260502014611 24 243 4.8 14.5 0.00 0.00 0.00 51 1009.6
20260502014526 24 250 4.8 14.5 0.00 0.00 0.00 50 1009.6
20260502014510 24 215 4.8 14.5 0.00 0.00 0.00 51 1009.6
20260502014425 24 250 4.8 14.5 0.00 0.00 0.00 50 1009.6
20260502014416 24 250 4.8 14.5 0.00 0.00 0.00 50 1009.6
20260502014211 24 233 4.8 14.5 0.00 0.00 0.00 50 1009.6
20260502014108 24 232 4.8 14.5 0.00 0.00 0.00 49 1009.6
20260502014009 24 235 4.8 14.5 0.00 0.00 0.00 49 1009.7
20260502013908 24 231 4.8 14.5 0.00 0.00 0.00 49 1009.7
20260502013811 24 226 4.8 12.9 0.00 0.00 0.00 49 1009.7
20260502013703 25 231 4.8 11.3 0.00 0.00 0.00 49 1009.7
20260502013603 25 207 4.8 11.3 0.00 0.00 0.00 48 1009.7
20260502013502 25 223 4.8 11.3 0.00 0.00 0.00 48 1009.7
20260502013402 25 240 4.8 11.3 0.00 0.00 0.00 48 1009.7
20260502013304 25 240 4.8 11.3 0.00 0.00 0.00 48 1009.7
20260502013156 25 228 4.8 11.3 0.00 0.00 0.00 48 1009.7
20260502013056 25 239 4.8 11.3 0.00 0.00 0.00 48 1009.6
20260502012957 25 225 4.8 11.3 0.00 0.00 0.00 48 1009.7
20260502012856 25 240 4.8 11.3 0.00 0.00 0.00 49 1009.7
20260502012804 25 224 4.8 11.3 0.00 0.00 0.00 49 1009.7
20260502012756 25 221 4.8 11.3 0.00 0.00 0.00 49 1009.7
20260502012653 25 184 6.4 12.9 0.00 0.00 0.00 49 1009.7
20260502012551 25 210 6.4 12.9 0.00 0.00 0.00 49 1009.6
20260502012450 25 236 6.4 12.9 0.00 0.00 0.00 48 1009.7
20260502012350 25 255 6.4 12.9 0.00 0.00 0.00 48 1009.7
20260502012257 25 239 6.4 12.9 0.00 0.00 0.00 47 1009.7
20260502012250 25 225 6.4 12.9 0.00 0.00 0.00 47 1009.7
20260502012144 25 137 4.8 12.9 0.00 0.00 0.00 47 1009.7
20260502012044 25 219 4.8 12.9 0.00 0.00 0.00 48 1009.7
20260502011945 25 269 4.8 12.9 0.00 0.00 0.00 48 1009.7
20260502011844 25 229 4.8 12.9 0.00 0.00 0.00 48 1009.7
20260502011758 25 232 4.8 12.9 0.00 0.00 0.00 48 1009.7
20260502011743 25 238 3.2 12.9 0.00 0.00 0.00 48 1009.7
20260502011641 25 259 3.2 12.9 0.00 0.00 0.00 50 1009.7
20260502011540 25 222 3.2 11.3 0.00 0.00 0.00 50 1009.7
20260502011440 25 218 3.2 11.3 0.00 0.00 0.00 50 1009.7
20260502011341 25 218 4.8 11.3 0.00 0.00 0.00 51 1009.7
20260502011258 25 242 4.8 11.3 0.00 0.00 0.00 51 1009.7
20260502011238 25 223 4.8 11.3 0.00 0.00 0.00 52 1009.7
20260502011134 25 236 4.8 11.3 0.00 0.00 0.00 52 1009.7
20260502011034 25 228 4.8 11.3 0.00 0.00 0.00 51 1009.7
20260502010934 25 174 4.8 16.1 0.00 0.00 0.00 51 1009.7
20260502010834 25 238 4.8 16.1 0.00 0.00 0.00 51 1009.8
20260502010756 25 239 4.8 16.1 0.00 0.00 0.00 51 1009.8
20260502010732 25 224 4.8 16.1 0.00 0.00 0.00 51 1009.7
20260502010631 25 229 6.4 16.1 0.00 0.00 0.00 51 1009.8
20260502010531 25 228 6.4 16.1 0.00 0.00 0.00 51 1009.8
20260502010428 25 165 6.4 16.1 0.00 0.00 0.00 51 1009.8
20260502010328 25 238 6.4 16.1 0.00 0.00 0.00 51 1009.8
20260502010255 25 231 6.4 16.1 0.00 0.00 0.00 51 1009.8
20260502010227 25 210 6.4 16.1 0.00 0.00 0.00 51 1009.8
20260502010121 25 239 6.4 16.1 0.00 0.00 0.00 51 1009.8
20260502010021 25 214 6.4 16.1 0.00 0.00 0.00 51 1009.8
20260502005920 25 236 6.4 14.5 0.00 0.00 0.00 52 1009.8
20260502005820 25 243 6.4 14.5 0.00 0.00 0.00 51 1009.8
20260502005757 25 266 6.4 14.5 0.00 0.00 0.00 51 1009.8
20260502005720 26 226 6.4 14.5 0.00 0.00 0.00 51 1009.8
20260502005616 26 238 6.4 14.5 0.00 0.00 0.00 51 1009.8
20260502005522 26 232 4.8 11.3 0.00 0.00 0.00 50 1009.7
20260502005515 26 240 4.8 14.5 0.00 0.00 0.00 50 1009.8
20260502005418 26 240 4.8 12.9 0.00 0.00 0.00 50 1009.8
20260502005410 26 233 4.8 11.3 0.00 0.00 0.00 50 1009.7
20260502005214 26 236 3.2 11.3 0.00 0.00 0.00 50 1009.8
20260502005112 26 243 3.2 11.3 0.00 0.00 0.00 50 1009.8
20260502005012 26 240 3.2 8.0 0.00 0.00 0.00 51 1009.8
20260502004910 26 210 1.6 6.4 0.00 0.00 0.00 50 1009.8
20260502004811 26 231 3.2 6.4 0.00 0.00 0.00 50 1009.8
20260502004755 26 231 3.2 6.4 0.00 0.00 0.00 49 1009.8
20260502004708 26 245 3.2 9.7 0.00 0.00 0.00 49 1009.7
20260502004604 26 219 1.6 9.7 0.00 0.00 0.00 49 1009.7
20260502004505 26 195 1.6 9.7 0.00 0.00 0.00 49 1009.8
20260502004405 26 217 3.2 9.7 0.00 0.00 0.00 49 1009.7
20260502004306 26 202 3.2 9.7 0.00 0.00 0.00 49 1009.7
20260502004256 26 221 3.2 9.7 0.00 0.00 0.00 49 1009.7
20260502004202 26 144 3.2 9.7 0.00 0.00 0.00 49 1009.8
20260502004102 26 239 3.2 9.7 0.00 0.00 0.00 49 1009.8
20260502004023 26 246 3.2 9.7 0.00 0.00 0.00 48 1009.8
20260502004000 26 239 3.2 9.7 0.00 0.00 0.00 49 1009.8
20260502003916 26 239 3.2 9.7 0.00 0.00 0.00 48 1009.8
20260502003905 26 246 3.2 9.7 0.00 0.00 0.00 48 1009.8
20260502003738 26 238 3.2 8.0 0.00 0.00 0.00 49 1009.8
20260502003656 26 224 3.2 8.0 0.00 0.00 0.00 49 1009.8
20260502003628 26 224 3.2 8.0 0.00 0.00 0.00 49 1009.8
20260502003450 26 238 3.2 8.0 0.00 0.00 0.00 49 1009.8
20260502003408 26 217 3.2 8.0 0.00 0.00 0.00 48 1009.9
20260502003251 26 238 3.2 8.0 0.00 0.00 0.00 49 1009.8
20260502003150 26 193 4.8 8.0 0.00 0.00 0.00 49 1009.8
20260502003048 26 148 4.8 11.3 0.00 0.00 0.00 49 1009.8
20260502002949 26 231 4.8 11.3 0.00 0.00 0.00 49 1009.8
20260502002847 26 238 4.8 11.3 0.00 0.00 0.00 49 1009.8
20260502002748 26 219 4.8 11.3 0.00 0.00 0.00 50 1009.8
20260502002649 26 242 4.8 11.3 0.00 0.00 0.00 49 1009.8
20260502002546 26 219 4.8 11.3 0.00 0.00 0.00 49 1009.8
20260502002513 26 243 4.8 11.3 0.00 0.00 0.00 50 1009.8
20260502002447 26 224 4.8 11.3 0.00 0.00 0.00 49 1009.8
20260502002403 26 228 4.8 11.3 0.00 0.00 0.00 49 1009.8
20260502002244 26 239 4.8 11.3 0.00 0.00 0.00 50 1009.8
20260502002144 26 229 4.8 11.3 0.00 0.00 0.00 49 1009.9
20260502002045 26 260 4.8 9.7 0.00 0.00 0.00 50 1009.8
20260502001945 26 241 4.8 9.7 0.00 0.00 0.00 50 1009.9
20260502001845 26 154 4.8 9.7 0.00 0.00 0.00 50 1009.9
20260502001753 26 236 4.8 9.7 0.00 0.00 0.00 50 1009.9
20260502001744 26 219 4.8 9.7 0.00 0.00 0.00 50 1009.9
20260502001644 26 210 6.4 11.3 0.00 0.00 0.00 50 1009.9
20260502001545 26 194 6.4 11.3 0.00 0.00 0.00 50 1009.9
20260502001444 26 243 6.4 11.3 0.00 0.00 0.00 49 1009.9
20260502001338 26 189 6.4 11.3 0.00 0.00 0.00 49 1009.9
20260502001253 26 165 6.4 11.3 0.00 0.00 0.00 49 1009.9
20260502001238 26 250 4.8 11.3 0.00 0.00 0.00 49 1009.9
20260502001138 26 133 4.8 11.3 0.00 0.00 0.00 49 1009.9
20260502001036 26 210 4.8 11.3 0.00 0.00 0.00 49 1009.9
20260502000936 26 219 4.8 11.3 0.00 0.00 0.00 49 1009.9
20260502000830 26 181 4.8 11.3 0.00 0.00 0.00 49 1009.9
20260502000753 26 151 4.8 11.3 0.00 0.00 0.00 49 1009.8
20260502000731 26 201 4.8 11.3 0.00 0.00 0.00 49 1009.8
20260502000630 26 215 4.8 11.3 0.00 0.00 0.00 48 1009.8
20260502000530 27 221 3.2 9.7 0.00 0.00 0.00 49 1009.8
20260502000431 27 229 4.8 9.7 0.00 0.00 0.00 49 1009.8
20260502000332 27 207 4.8 11.3 0.00 0.00 0.00 49 1009.8
20260502000247 27 215 4.8 14.5 0.00 0.00 0.00 49 1009.8
20260502000229 27 183 4.8 14.5 0.00 0.00 0.00 49 1009.8
20260502000128 27 276 4.8 14.5 0.00 0.00 0.00 49 1009.9
20260502000026 27 245 4.8 14.5 0.00 0.00 0.00 49 1009.9
20260501235924 27 225 4.8 14.5 0.00 0.00 0.00 49 1009.9
20260501235820 27 236 4.8 14.5 0.00 0.00 0.00 49 1009.9
20260501235740 27 172 4.8 14.5 0.00 0.00 0.00 49 1009.9
20260501235718 27 229 4.8 14.5 0.00 0.00 0.00 49 1009.9
20260501235619 27 218 6.4 14.5 0.00 0.00 0.00 49 1009.9
20260501235518 27 216 6.4 14.5 0.00 0.00 0.00 49 1009.9
20260501235418 27 221 6.4 14.5 0.00 0.00 0.00 49 1009.9
20260501235313 27 235 4.8 12.9 0.00 0.00 0.00 50 1010.0
20260501235233 27 229 4.8 12.9 0.00 0.00 0.00 50 1009.9
20260501235216 27 217 4.8 14.5 0.00 0.00 0.00 49 1010.0
20260501235212 27 240 4.8 12.9 0.00 0.00 0.00 49 1009.9
20260501235113 27 226 4.8 12.9 0.00 0.00 0.00 48 1010.0
20260501235056 27 253 4.8 12.9 0.00 0.00 0.00 49 1010.0
20260501234916 27 250 4.8 11.3 0.00 0.00 0.00 49 1009.9
20260501234839 27 165 4.8 11.3 0.00 0.00 0.00 49 1010.0
20260501234706 27 136 4.8 14.5 0.00 0.00 0.00 49 1010.0
20260501234607 27 231 4.8 14.5 0.00 0.00 0.00 49 1010.0
20260501234506 27 236 4.8 14.5 0.00 0.00 0.00 50 1010.0
20260501234449 28 231 3.2 14.5 0.00 0.00 0.00 48 1010.1
20260501234405 28 259 4.8 14.5 0.00 0.00 0.00 49 1010.0
20260501234335 28 242 4.8 14.5 0.00 0.00 0.00 48 1010.0
20260501234204 28 218 3.2 14.5 0.00 0.00 0.00 48 1010.1
20260501234104 28 242 3.2 14.5 0.00 0.00 0.00 48 1010.1
20260501234002 28 243 3.2 14.5 0.00 0.00 0.00 47 1010.1
20260501233900 28 217 3.2 14.5 0.00 0.00 0.00 47 1010.1
20260501233756 28 207 3.2 14.5 0.00 0.00 0.00 46 1010.1
20260501233716 28 197 1.6 8.0 0.00 0.00 0.00 46 1010.1
20260501233654 28 232 1.6 8.0 0.00 0.00 0.00 46 1010.1
20260501233554 28 217 1.6 8.0 0.00 0.00 0.00 46 1010.2
20260501233455 28 232 1.6 8.0 0.00 0.00 0.00 46 1010.1
20260501233354 28 231 1.6 8.0 0.00 0.00 0.00 46 1010.1
20260501233254 28 266 1.6 8.0 0.00 0.00 0.00 45 1010.1
20260501233210 28 266 1.6 8.0 0.00 0.00 0.00 45 1010.2
20260501233153 29 266 1.6 8.0 0.00 0.00 0.00 45 1010.2
20260501233052 29 266 1.6 8.0 0.00 0.00 0.00 46 1010.2
20260501232950 29 266 1.6 8.0 0.00 0.00 0.00 45 1010.2
20260501232848 29 267 1.6 8.0 0.00 0.00 0.00 45 1010.2
20260501232746 29 226 1.6 6.4 0.00 0.00 0.00 45 1010.2
20260501232704 29 219 0.0 4.8 0.00 0.00 0.00 46 1010.2
20260501232647 29 219 0.0 4.8 0.00 0.00 0.00 45 1010.2
20260501232546 29 220 1.6 4.8 0.00 0.00 0.00 45 1010.2
20260501232444 29 219 1.6 4.8 0.00 0.00 0.00 46 1010.2
20260501232343 29 219 1.6 4.8 0.00 0.00 0.00 46 1010.2
20260501232236 28 219 1.6 4.8 0.00 0.00 0.00 45 1010.2
20260501232159 28 219 1.6 6.4 0.00 0.00 0.00 45 1010.2
20260501232136 28 228 1.6 6.4 0.00 0.00 0.00 45 1010.2
20260501232037 28 228 1.6 6.4 0.00 0.00 0.00 45 1010.2
20260501231937 28 144 1.6 6.4 0.00 0.00 0.00 44 1010.2
20260501231836 28 143 1.6 6.4 0.00 0.00 0.00 45 1010.2
20260501231734 28 143 1.6 6.4 0.00 0.00 0.00 45 1010.3
20260501231653 28 204 1.6 6.4 0.00 0.00 0.00 45 1010.3
20260501231634 28 205 1.6 6.4 0.00 0.00 0.00 47 1010.3
20260501231534 28 231 1.6 6.4 0.00 0.00 0.00 47 1010.3
20260501231433 28 231 1.6 6.4 0.00 0.00 0.00 47 1010.3
20260501231330 28 229 1.6 9.7 0.00 0.00 0.00 47 1010.3
20260501231227 28 224 1.6 9.7 0.00 0.00 0.00 47 1010.3
20260501231146 28 221 1.6 9.7 0.00 0.00 0.00 48 1010.3
20260501231124 28 219 1.6 9.7 0.00 0.00 0.00 48 1010.3
20260501231024 28 212 1.6 9.7 0.00 0.00 0.00 46 1010.3
20260501230925 28 278 1.6 9.7 0.00 0.00 0.00 48 1010.3
20260501230825 28 203 1.6 9.7 0.00 0.00 0.00 47 1010.4
20260501230719 28 124 1.6 9.7 0.00 0.00 0.00 47 1010.3
20260501230639 28 221 1.6 9.7 0.00 0.00 0.00 48 1010.4
20260501230619 28 131 1.6 9.7 0.00 0.00 0.00 49 1010.4
20260501230518 28 163 1.6 9.7 0.00 0.00 0.00 48 1010.4
20260501230418 28 219 0.0 9.7 0.00 0.00 0.00 48 1010.4
20260501230318 28 185 0.0 6.4 0.00 0.00 0.00 48 1010.4
20260501230214 28 222 0.0 6.4 0.00 0.00 0.00 47 1010.4
20260501230135 28 259 1.6 9.7 0.00 0.00 0.00 49 1010.4
20260501230112 28 259 1.6 11.3 0.00 0.00 0.00 49 1010.4
20260501230013 28 259 1.6 11.3 0.00 0.00 0.00 49 1010.5
20260501225912 28 259 1.6 11.3 0.00 0.00 0.00 49 1010.5
20260501225813 28 259 1.6 11.3 0.00 0.00 0.00 49 1010.5
20260501225713 28 259 1.6 11.3 0.00 0.00 0.00 49 1010.5
20260501225610 28 259 1.6 11.3 0.00 0.00 0.00 49 1010.6
20260501225513 28 259 3.2 11.3 0.00 0.00 0.00 48 1010.6
20260501225409 28 259 3.2 11.3 0.00 0.00 0.00 49 1010.6
20260501225306 28 259 3.2 11.3 0.00 0.00 0.00 48 1010.6
20260501225204 28 193 3.2 11.3 0.00 0.00 0.00 48 1010.6
20260501225122 28 176 3.2 11.3 0.00 0.00 0.00 49 1010.6
20260501225104 28 231 3.2 9.7 0.00 0.00 0.00 49 1010.6
20260501225004 28 143 3.2 9.7 0.00 0.00 0.00 49 1010.6
20260501224902 28 141 3.2 9.7 0.00 0.00 0.00 49 1010.7
20260501224800 28 163 3.2 9.7 0.00 0.00 0.00 50 1010.7
20260501224657 28 224 3.2 9.7 0.00 0.00 0.00 50 1010.7
20260501224617 28 224 3.2 9.7 0.00 0.00 0.00 49 1010.7
20260501224555 28 224 3.2 9.7 0.00 0.00 0.00 49 1010.7
20260501224454 28 163 3.2 9.7 0.00 0.00 0.00 50 1010.7
20260501224354 28 233 3.2 9.7 0.00 0.00 0.00 50 1010.8
20260501224255 27 155 3.2 9.7 0.00 0.00 0.00 50 1010.7
20260501224149 27 203 3.2 9.7 0.00 0.00 0.00 49 1010.8
20260501224110 28 200 3.2 9.7 0.00 0.00 0.00 49 1010.8
20260501224048 28 235 3.2 11.3 0.00 0.00 0.00 49 1010.8
20260501223949 28 323 3.2 11.3 0.00 0.00 0.00 50 1010.8
20260501223848 28 323 3.2 11.3 0.00 0.00 0.00 50 1010.9
20260501223748 28 323 4.8 11.3 0.00 0.00 0.00 50 1010.9
20260501223646 28 233 4.8 11.3 0.00 0.00 0.00 50 1010.9
20260501223604 28 233 4.8 11.3 0.00 0.00 0.00 50 1010.9
20260501223546 28 233 4.8 11.3 0.00 0.00 0.00 50 1011.0
20260501223447 28 233 4.8 11.3 0.00 0.00 0.00 50 1011.0
20260501223344 28 240 4.8 11.3 0.00 0.00 0.00 51 1011.0
20260501223242 28 184 4.8 11.3 0.00 0.00 0.00 51 1011.0
20260501223137 28 229 3.2 12.9 0.00 0.00 0.00 50 1011.0
20260501223057 28 193 3.2 12.9 0.00 0.00 0.00 50 1011.0
20260501223036 27 222 3.2 12.9 0.00 0.00 0.00 50 1011.0
20260501222937 27 245 3.2 12.9 0.00 0.00 0.00 50 1011.1
20260501222836 27 135 3.2 12.9 0.00 0.00 0.00 50 1011.1
20260501222736 27 276 3.2 12.9 0.00 0.00 0.00 50 1011.1
20260501222632 27 235 3.2 12.9 0.00 0.00 0.00 50 1011.1
20260501222555 28 233 3.2 12.9 0.00 0.00 0.00 50 1011.1
20260501222530 28 210 3.2 12.9 0.00 0.00 0.00 50 1011.2
20260501222430 28 245 3.2 12.9 0.00 0.00 0.00 50 1011.2
20260501222330 28 260 3.2 12.9 0.00 0.00 0.00 50 1011.2
20260501222230 28 250 3.2 12.9 0.00 0.00 0.00 51 1011.2
20260501222126 28 219 3.2 11.3 0.00 0.00 0.00 51 1011.3
20260501222047 28 220 4.8 11.3 0.00 0.00 0.00 50 1011.3
20260501222024 28 219 4.8 11.3 0.00 0.00 0.00 50 1011.3
20260501221925 27 221 4.8 12.9 0.00 0.00 0.00 51 1011.3
20260501221824 27 276 4.8 12.9 0.00 0.00 0.00 51 1011.2
20260501221803 27 205 4.8 12.9 0.00 0.00 0.00 51 1011.3
20260501221727 27 255 4.8 12.9 0.00 0.00 0.00 51 1011.3
20260501221651 27 224 4.8 12.9 0.00 0.00 0.00 50 1011.3
20260501221520 27 225 4.8 12.9 0.00 0.00 0.00 51 1011.3
20260501221421 27 224 4.8 12.9 0.00 0.00 0.00 50 1011.3
20260501221320 27 212 4.8 12.9 0.00 0.00 0.00 51 1011.3
20260501221218 27 224 4.8 12.9 0.00 0.00 0.00 50 1011.3
20260501221114 27 231 4.8 12.9 0.00 0.00 0.00 50 1011.3
20260501221034 27 228 4.8 12.9 0.00 0.00 0.00 50 1011.4
20260501221012 27 232 4.8 12.9 0.00 0.00 0.00 50 1011.4
20260501220913 27 149 4.8 12.9 0.00 0.00 0.00 50 1011.4
20260501220813 27 233 4.8 12.9 0.00 0.00 0.00 50 1011.3
20260501220712 27 239 4.8 12.9 0.00 0.00 0.00 50 1011.4
20260501220607 27 256 4.8 14.5 0.00 0.00 0.00 51 1011.5
20260501220527 27 243 4.8 14.5 0.00 0.00 0.00 51 1011.4
20260501220506 27 235 4.8 14.5 0.00 0.00 0.00 51 1011.4
20260501220406 27 141 4.8 14.5 0.00 0.00 0.00 51 1011.4
20260501220307 27 235 4.8 14.5 0.00 0.00 0.00 51 1011.5
20260501220206 27 232 4.8 14.5 0.00 0.00 0.00 51 1011.5
20260501220024 27 217 4.8 14.5 0.00 0.00 0.00 50 1011.6
20260501220000 27 221 4.8 14.5 0.00 0.00 0.00 50 1011.6
20260501215904 27 204 4.8 14.5 0.00 0.00 0.00 50 1011.5
20260501215800 27 225 4.8 14.5 0.00 0.00 0.00 50 1011.6
20260501215700 27 241 4.8 14.5 0.00 0.00 0.00 50 1011.6
20260501215554 27 212 4.8 14.5 0.00 0.00 0.00 50 1011.6
20260501215515 27 224 4.8 14.5 0.00 0.00 0.00 51 1011.6
20260501215455 27 242 4.8 14.5 0.00 0.00 0.00 51 1011.6
20260501215354 27 174 4.8 14.5 0.00 0.00 0.00 51 1011.6
20260501215254 27 199 4.8 14.5 0.00 0.00 0.00 51 1011.6
20260501215154 27 242 4.8 14.5 0.00 0.00 0.00 51 1011.6
20260501215050 27 287 4.8 14.5 0.00 0.00 0.00 50 1011.6
20260501215010 27 222 4.8 14.5 0.00 0.00 0.00 49 1011.6
20260501214950 27 144 4.8 14.5 0.00 0.00 0.00 49 1011.6
20260501214850 27 226 4.8 14.5 0.00 0.00 0.00 49 1011.6
20260501214750 27 214 4.8 14.5 0.00 0.00 0.00 49 1011.6
20260501214648 27 208 4.8 14.5 0.00 0.00 0.00 49 1011.6
20260501214542 27 238 3.2 9.7 0.00 0.00 0.00 51 1011.6
20260501214505 27 242 3.2 9.7 0.00 0.00 0.00 50 1011.6
20260501214443 27 242 3.2 9.7 0.00 0.00 0.00 50 1011.6
20260501214342 27 218 1.6 9.7 0.00 0.00 0.00 50 1011.7
20260501214242 27 224 1.6 9.7 0.00 0.00 0.00 50 1011.7
20260501214143 27 221 1.6 9.7 0.00 0.00 0.00 52 1011.7
20260501214039 27 218 1.6 9.7 0.00 0.00 0.00 51 1011.6
20260501213958 27 207 1.6 9.7 0.00 0.00 0.00 50 1011.6
20260501213936 27 245 1.6 9.7 0.00 0.00 0.00 50 1011.6
20260501213836 27 233 1.6 9.7 0.00 0.00 0.00 50 1011.7
20260501213736 27 228 1.6 8.0 0.00 0.00 0.00 51 1011.7
20260501213636 27 300 3.2 8.0 0.00 0.00 0.00 51 1011.7
20260501213533 27 300 3.2 9.7 0.00 0.00 0.00 51 1011.7
20260501213431 27 30 3.2 14.5 0.00 0.00 0.00 50 1011.7
20260501213330 27 332 3.2 14.5 0.00 0.00 0.00 50 1011.7
20260501213230 27 215 3.2 14.5 0.00 0.00 0.00 52 1011.7
20260501213130 27 219 3.2 14.5 0.00 0.00 0.00 50 1011.8
20260501213024 27 239 3.2 14.5 0.00 0.00 0.00 50 1011.8
20260501212924 27 246 4.8 14.5 0.00 0.00 0.00 49 1011.8
20260501212825 27 204 4.8 14.5 0.00 0.00 0.00 50 1011.8
20260501212727 27 240 4.8 14.5 0.00 0.00 0.00 49 1011.8
20260501212702 27 231 3.2 11.3 0.00 0.00 0.00 49 1011.8
20260501212624 27 144 4.8 14.5 0.00 0.00 0.00 49 1011.8
20260501212552 27 219 3.2 14.5 0.00 0.00 0.00 49 1011.8
20260501212423 27 231 3.2 11.3 0.00 0.00 0.00 49 1011.8
20260501212322 27 259 3.2 11.3 0.00 0.00 0.00 49 1011.8
20260501212220 27 200 4.8 12.9 0.00 0.00 0.00 48 1011.8
20260501212120 27 218 3.2 12.9 0.00 0.00 0.00 50 1011.8
20260501212012 27 208 3.2 12.9 0.00 0.00 0.00 49 1011.8
20260501211933 27 193 3.2 12.9 0.00 0.00 0.00 49 1011.8
20260501211912 27 222 3.2 12.9 0.00 0.00 0.00 49 1011.8
20260501211813 27 225 3.2 12.9 0.00 0.00 0.00 49 1011.8
20260501211712 27 229 1.6 12.9 0.00 0.00 0.00 49 1011.8
20260501211613 27 179 1.6 12.9 0.00 0.00 0.00 49 1011.9
20260501211511 27 144 3.2 12.9 0.00 0.00 0.00 49 1011.8
20260501211433 28 143 1.6 12.9 0.00 0.00 0.00 49 1011.9
20260501211410 28 143 1.6 12.9 0.00 0.00 0.00 47 1011.9
20260501211308 28 159 1.6 12.9 0.00 0.00 0.00 47 1011.9
20260501211209 28 235 1.6 4.8 0.00 0.00 0.00 48 1011.9
20260501211106 28 253 1.6 3.2 0.00 0.00 0.00 49 1011.8
20260501211002 28 150 1.6 3.2 0.00 0.00 0.00 49 1011.8
20260501210932 28 103 1.6 3.2 0.00 0.00 0.00 49 1011.8
20260501210904 28 103 1.6 4.8 0.00 0.00 0.00 50 1011.8
20260501210801 28 138 1.6 6.4 0.00 0.00 0.00 49 1011.8
20260501210700 28 138 1.6 6.4 0.00 0.00 0.00 49 1011.9
20260501210600 28 136 1.6 6.4 0.00 0.00 0.00 50 1011.8
20260501210500 28 262 1.6 6.4 0.00 0.00 0.00 50 1011.9
20260501210430 28 262 1.6 6.4 0.00 0.00 0.00 50 1011.9
20260501210358 28 262 1.6 6.4 0.00 0.00 0.00 50 1011.9
20260501210258 27 261 1.6 6.4 0.00 0.00 0.00 51 1011.8
20260501210156 27 262 1.6 6.4 0.00 0.00 0.00 51 1011.8
20260501210056 27 262 1.6 6.4 0.00 0.00 0.00 52 1011.9
20260501205930 27 262 1.6 6.4 0.00 0.00 0.00 52 1011.9
20260501205849 27 136 1.6 6.4 0.00 0.00 0.00 51 1011.9
20260501205748 27 190 1.6 6.4 0.00 0.00 0.00 52 1011.9
20260501205648 27 338 1.6 6.4 0.00 0.00 0.00 52 1011.9
20260501205549 27 336 1.6 11.3 0.00 0.00 0.00 51 1011.9
20260501205445 27 300 1.6 11.3 0.00 0.00 0.00 52 1012.0
20260501205430 27 301 1.6 11.3 0.00 0.00 0.00 52 1012.0
20260501205343 27 300 1.6 11.3 0.00 0.00 0.00 52 1012.0
20260501205242 27 219 1.6 11.3 0.00 0.00 0.00 53 1012.0
20260501205142 26 139 1.6 11.3 0.00 0.00 0.00 51 1012.0
20260501205042 26 205 3.2 11.3 0.00 0.00 0.00 51 1012.0
20260501204930 26 224 3.2 11.3 0.00 0.00 0.00 53 1012.0
20260501204837 26 177 3.2 11.3 0.00 0.00 0.00 54 1012.0
20260501204736 26 253 3.2 11.3 0.00 0.00 0.00 54 1012.1
20260501204637 26 253 4.8 11.3 0.00 0.00 0.00 53 1012.1
20260501204536 26 248 4.8 11.3 0.00 0.00 0.00 54 1012.1
20260501204432 26 199 4.8 11.3 0.00 0.00 0.00 54 1012.1
20260501204331 26 231 4.8 11.3 0.00 0.00 0.00 53 1012.1
20260501204230 26 221 4.8 11.3 0.00 0.00 0.00 53 1012.2
20260501204151 26 239 3.2 11.3 0.00 0.00 0.00 53 1012.1
20260501204131 26 232 4.8 11.3 0.00 0.00 0.00 52 1012.1
20260501204047 26 229 4.8 11.3 0.00 0.00 0.00 52 1012.1
20260501204037 26 239 3.2 11.3 0.00 0.00 0.00 53 1012.1
20260501203828 26 253 3.2 11.3 0.00 0.00 0.00 54 1012.1
20260501203728 26 228 3.2 11.3 0.00 0.00 0.00 53 1012.2
20260501203628 26 207 3.2 11.3 0.00 0.00 0.00 53 1012.2
20260501203528 26 232 4.8 11.3 0.00 0.00 0.00 54 1012.2
20260501203431 25 219 4.8 14.5 0.00 0.00 0.00 56 1012.2
20260501203329 25 264 4.8 16.1 0.00 0.00 0.00 55 1012.2
20260501203228 25 141 6.4 16.1 0.00 0.00 0.00 55 1012.2
20260501203157 25 179 6.4 16.1 0.00 0.00 0.00 55 1012.3
20260501203129 25 250 6.4 16.1 0.00 0.00 0.00 55 1012.3
20260501203046 25 224 6.4 16.1 0.00 0.00 0.00 54 1012.3
20260501203036 25 179 6.4 16.1 0.00 0.00 0.00 55 1012.3
20260501202829 25 200 8.0 16.1 0.00 0.00 0.00 56 1012.4
20260501202729 25 225 8.0 16.1 0.00 0.00 0.00 54 1012.4
20260501202649 25 229 6.4 17.7 0.00 0.00 0.00 54 1012.4
20260501202628 25 178 8.0 17.7 0.00 0.00 0.00 54 1012.4
20260501202547 25 215 6.4 17.7 0.00 0.00 0.00 53 1012.4
20260501202536 25 229 6.4 17.7 0.00 0.00 0.00 54 1012.4
20260501202328 25 233 6.4 17.7 0.00 0.00 0.00 55 1012.4
20260501202227 25 222 6.4 17.7 0.00 0.00 0.00 53 1012.4
20260501202154 26 231 3.2 17.7 0.00 0.00 0.00 53 1012.4
20260501202126 26 236 4.8 17.7 0.00 0.00 0.00 52 1012.5
20260501202042 26 221 4.8 17.7 0.00 0.00 0.00 52 1012.4
20260501201925 26 214 3.2 17.7 0.00 0.00 0.00 53 1012.4
20260501201824 26 107 3.2 17.7 0.00 0.00 0.00 53 1012.4
20260501201723 26 134 3.2 17.7 0.00 0.00 0.00 53 1012.5
20260501201622 26 149 3.2 12.9 0.00 0.00 0.00 56 1012.5
20260501201522 26 255 4.8 14.5 0.00 0.00 0.00 56 1012.5
20260501201428 25 254 3.2 14.5 0.00 0.00 0.00 54 1012.5
20260501201420 25 169 3.2 14.5 0.00 0.00 0.00 54 1012.5
20260501201320 25 203 3.2 14.5 0.00 0.00 0.00 55 1012.5
20260501201218 25 170 3.2 14.5 0.00 0.00 0.00 55 1012.5
20260501201141 25 236 4.8 14.5 0.00 0.00 0.00 56 1012.5
20260501201118 25 219 3.2 14.5 0.00 0.00 0.00 56 1012.5
20260501201035 25 236 4.8 14.5 0.00 0.00 0.00 56 1012.5
20260501200916 25 236 4.8 14.5 0.00 0.00 0.00 56 1012.5
20260501200816 25 238 4.8 14.5 0.00 0.00 0.00 55 1012.5
20260501200714 25 236 4.8 14.5 0.00 0.00 0.00 55 1012.5
20260501200612 25 246 4.8 14.5 0.00 0.00 0.00 55 1012.6
20260501200513 25 231 3.2 12.9 0.00 0.00 0.00 55 1012.6
20260501200424 25 136 3.2 12.9 0.00 0.00 0.00 56 1012.6
20260501200412 25 245 3.2 12.9 0.00 0.00 0.00 56 1012.6
20260501200313 25 252 3.2 12.9 0.00 0.00 0.00 56 1012.7
20260501200211 25 239 3.2 12.9 0.00 0.00 0.00 55 1012.6
20260501200109 25 233 3.2 12.9 0.00 0.00 0.00 54 1012.7
20260501200009 25 264 3.2 12.9 0.00 0.00 0.00 54 1012.7
20260501195925 25 231 3.2 12.9 0.00 0.00 0.00 54 1012.7
20260501195909 25 232 3.2 12.9 0.00 0.00 0.00 53 1012.7
20260501195809 25 238 3.2 12.9 0.00 0.00 0.00 53 1012.7
20260501195709 25 203 3.2 11.3 0.00 0.00 0.00 55 1012.7
20260501195608 25 321 3.2 11.3 0.00 0.00 0.00 56 1012.7
20260501195502 25 167 4.8 11.3 0.00 0.00 0.00 57 1012.7
20260501195424 25 216 4.8 11.3 0.00 0.00 0.00 57 1012.7
20260501195404 25 300 4.8 11.3 0.00 0.00 0.00 56 1012.7
20260501195305 25 259 4.8 11.3 0.00 0.00 0.00 57 1012.7
20260501195200 25 262 4.8 11.3 0.00 0.00 0.00 57 1012.7
20260501195141 24 194 6.4 11.3 0.00 0.00 0.00 56 1012.8
20260501195101 24 276 6.4 11.3 0.00 0.00 0.00 57 1012.8
20260501195033 24 219 6.4 11.3 0.00 0.00 0.00 56 1012.7
20260501194859 24 160 6.4 11.3 0.00 0.00 0.00 57 1012.8
20260501194755 24 176 6.4 14.5 0.00 0.00 0.00 57 1012.8
20260501194654 24 169 6.4 14.5 0.00 0.00 0.00 57 1012.8
20260501194554 24 211 6.4 16.1 0.00 0.00 0.00 57 1012.8
20260501194450 23 146 6.4 16.1 0.00 0.00 0.00 58 1012.8
20260501194421 23 222 6.4 16.1 0.00 0.00 0.00 58 1012.8
20260501194350 23 233 6.4 16.1 0.00 0.00 0.00 58 1012.8
20260501194250 23 232 6.4 16.1 0.00 0.00 0.00 59 1012.8
20260501194150 23 219 6.4 16.1 0.00 0.00 0.00 58 1012.9
20260501194052 23 239 6.4 16.1 0.00 0.00 0.00 58 1012.9
20260501193950 23 239 6.4 16.1 0.00 0.00 0.00 58 1012.9
20260501193917 23 235 6.4 16.1 0.00 0.00 0.00 58 1012.9
20260501193848 23 236 6.4 16.1 0.00 0.00 0.00 58 1012.9
20260501193748 23 271 6.4 16.1 0.00 0.00 0.00 58 1012.9
20260501193649 23 243 6.4 16.1 0.00 0.00 0.00 58 1012.9
20260501193548 23 245 4.8 12.9 0.00 0.00 0.00 58 1012.9
20260501193448 23 231 4.8 17.7 0.00 0.00 0.00 58 1013.0
20260501193420 23 236 4.8 17.7 0.00 0.00 0.00 59 1013.0
20260501193348 23 236 4.8 17.7 0.00 0.00 0.00 59 1013.0
20260501193248 23 245 6.4 17.7 0.00 0.00 0.00 57 1012.9
20260501193149 23 232 4.8 17.7 0.00 0.00 0.00 58 1013.0
20260501193049 23 276 4.8 17.7 0.00 0.00 0.00 57 1013.0
20260501192948 24 200 4.8 17.7 0.00 0.00 0.00 57 1013.0
20260501192919 24 228 4.8 17.7 0.00 0.00 0.00 58 1013.0
20260501192848 24 243 4.8 17.7 0.00 0.00 0.00 58 1013.1
20260501192743 24 197 4.8 17.7 0.00 0.00 0.00 57 1013.1
20260501192642 24 238 4.8 17.7 0.00 0.00 0.00 56 1013.1
20260501192543 24 267 4.8 17.7 0.00 0.00 0.00 58 1013.0
20260501192441 24 214 4.8 14.5 0.00 0.00 0.00 57 1013.1
20260501192419 24 215 4.8 14.5 0.00 0.00 0.00 56 1013.1
20260501192340 24 214 4.8 14.5 0.00 0.00 0.00 56 1013.1
20260501192240 24 225 4.8 12.9 0.00 0.00 0.00 57 1013.1
20260501192143 25 255 3.2 12.9 0.00 0.00 0.00 55 1013.2
20260501192138 24 215 4.8 12.9 0.00 0.00 0.00 56 1013.1
20260501192039 24 210 4.8 12.9 0.00 0.00 0.00 56 1013.2
20260501192028 25 255 3.2 12.9 0.00 0.00 0.00 55 1013.2
20260501191835 25 207 3.2 9.7 0.00 0.00 0.00 55 1013.2
20260501191731 25 131 3.2 9.7 0.00 0.00 0.00 57 1013.2
20260501191650 24 215 1.6 9.7 0.00 0.00 0.00 58 1013.3
20260501191628 24 141 3.2 9.7 0.00 0.00 0.00 56 1013.2
20260501191537 24 263 3.2 9.7 0.00 0.00 0.00 58 1013.3
20260501191528 24 219 1.6 9.7 0.00 0.00 0.00 58 1013.3
20260501191326 24 222 1.6 9.7 0.00 0.00 0.00 58 1013.3
20260501191220 24 98 1.6 9.7 0.00 0.00 0.00 58 1013.3
20260501191120 23 217 3.2 9.7 0.00 0.00 0.00 59 1013.3
20260501191020 23 162 3.2 9.7 0.00 0.00 0.00 60 1013.3
20260501190921 23 161 3.2 11.3 0.00 0.00 0.00 60 1013.3
20260501190819 23 187 3.2 12.9 0.00 0.00 0.00 59 1013.3
20260501190713 23 232 4.8 14.5 0.00 0.00 0.00 60 1013.3
20260501190613 23 226 4.8 14.5 0.00 0.00 0.00 61 1013.4
20260501190512 23 246 4.8 14.5 0.00 0.00 0.00 61 1013.4
20260501190430 23 177 6.4 14.5 0.00 0.00 0.00 61 1013.3
20260501190410 23 193 6.4 14.5 0.00 0.00 0.00 61 1013.3
20260501190311 22 225 6.4 14.5 0.00 0.00 0.00 61 1013.3
20260501190205 22 250 6.4 14.5 0.00 0.00 0.00 62 1013.4
20260501190105 22 150 6.4 14.5 0.00 0.00 0.00 61 1013.4
20260501190004 22 239 6.4 14.5 0.00 0.00 0.00 61 1013.4
20260501185927 22 235 4.8 14.5 0.00 0.00 0.00 61 1013.4
20260501185904 22 260 4.8 14.5 0.00 0.00 0.00 61 1013.4
20260501185804 22 262 4.8 14.5 0.00 0.00 0.00 60 1013.4
20260501185700 22 241 4.8 12.9 0.00 0.00 0.00 61 1013.4
20260501185559 22 253 4.8 12.9 0.00 0.00 0.00 61 1013.4
20260501185459 22 266 4.8 12.9 0.00 0.00 0.00 61 1013.4
20260501185427 22 229 4.8 11.3 0.00 0.00 0.00 60 1013.4
20260501185358 22 218 4.8 11.3 0.00 0.00 0.00 60 1013.4
20260501185258 22 150 4.8 11.3 0.00 0.00 0.00 60 1013.4
20260501185159 22 232 4.8 16.1 0.00 0.00 0.00 60 1013.5
20260501185058 22 239 4.8 16.1 0.00 0.00 0.00 60 1013.4
20260501184958 22 236 4.8 16.1 0.00 0.00 0.00 61 1013.5
20260501184914 22 191 6.4 16.1 0.00 0.00 0.00 61 1013.5
20260501184858 22 200 6.4 16.1 0.00 0.00 0.00 61 1013.5
20260501184758 22 174 6.4 16.1 0.00 0.00 0.00 62 1013.5
20260501184659 22 200 6.4 16.1 0.00 0.00 0.00 62 1013.5
20260501184558 22 210 6.4 16.1 0.00 0.00 0.00 62 1013.5
20260501184459 22 167 6.4 16.1 0.00 0.00 0.00 62 1013.5
20260501184413 22 255 6.4 16.1 0.00 0.00 0.00 62 1013.5
20260501184359 22 186 6.4 16.1 0.00 0.00 0.00 62 1013.5
20260501184259 22 243 6.4 16.1 0.00 0.00 0.00 62 1013.5
20260501184158 22 229 4.8 14.5 0.00 0.00 0.00 62 1013.5
20260501184059 22 233 4.8 12.9 0.00 0.00 0.00 62 1013.5
20260501183952 22 179 4.8 12.9 0.00 0.00 0.00 62 1013.5
20260501183914 22 255 4.8 12.9 0.00 0.00 0.00 62 1013.6
20260501183856 22 224 4.8 12.9 0.00 0.00 0.00 61 1013.6
20260501183752 22 236 4.8 12.9 0.00 0.00 0.00 61 1013.6
20260501183652 22 235 3.2 12.9 0.00 0.00 0.00 61 1013.6
20260501183552 22 212 3.2 11.3 0.00 0.00 0.00 61 1013.6
20260501183450 22 218 4.8 14.5 0.00 0.00 0.00 61 1013.6
20260501183409 22 236 4.8 14.5 0.00 0.00 0.00 61 1013.6
20260501183350 22 222 4.8 16.1 0.00 0.00 0.00 64 1013.6
20260501183251 22 262 4.8 16.1 0.00 0.00 0.00 64 1013.6
20260501183148 22 262 4.8 16.1 0.00 0.00 0.00 64 1013.6
20260501183046 22 262 6.4 16.1 0.00 0.00 0.00 64 1013.6
20260501182941 21 230 6.4 16.1 0.00 0.00 0.00 64 1013.6
20260501182906 21 238 6.4 16.1 0.00 0.00 0.00 63 1013.6
20260501182841 21 208 6.4 16.1 0.00 0.00 0.00 63 1013.7
20260501182740 21 169 6.4 16.1 0.00 0.00 0.00 63 1013.7
20260501182640 21 257 6.4 16.1 0.00 0.00 0.00 63 1013.7
20260501182540 21 214 4.8 16.1 0.00 0.00 0.00 63 1013.7
20260501182434 21 210 4.8 16.1 0.00 0.00 0.00 62 1013.7
20260501182356 21 250 4.8 14.5 0.00 0.00 0.00 64 1013.7
20260501182334 21 152 4.8 14.5 0.00 0.00 0.00 63 1013.7
20260501182234 21 229 4.8 14.5 0.00 0.00 0.00 63 1013.7
20260501182135 21 207 4.8 14.5 0.00 0.00 0.00 63 1013.7
20260501182035 22 143 4.8 14.5 0.00 0.00 0.00 62 1013.7
20260501181930 22 229 4.8 14.5 0.00 0.00 0.00 62 1013.7
20260501181853 22 229 4.8 12.9 0.00 0.00 0.00 63 1013.7
20260501181828 22 249 4.8 12.9 0.00 0.00 0.00 63 1013.7
20260501181729 22 249 4.8 12.9 0.00 0.00 0.00 64 1013.7
20260501181629 22 245 4.8 12.9 0.00 0.00 0.00 64 1013.7
20260501181528 21 249 4.8 12.9 0.00 0.00 0.00 64 1013.8
20260501181424 21 201 3.2 12.9 0.00 0.00 0.00 64 1013.7
20260501181344 21 228 4.8 12.9 0.00 0.00 0.00 64 1013.7
20260501181325 21 246 4.8 12.9 0.00 0.00 0.00 64 1013.7
20260501181227 21 239 4.8 12.9 0.00 0.00 0.00 64 1013.7
20260501181125 21 288 4.8 12.9 0.00 0.00 0.00 63 1013.8
20260501181022 21 194 4.8 12.9 0.00 0.00 0.00 63 1013.8
20260501180920 21 236 4.8 12.9 0.00 0.00 0.00 64 1013.8
20260501180839 21 146 3.2 12.9 0.00 0.00 0.00 64 1013.8
20260501180820 21 211 3.2 12.9 0.00 0.00 0.00 64 1013.8
20260501180722 21 238 4.8 12.9 0.00 0.00 0.00 66 1013.7
20260501180619 21 232 4.8 12.9 0.00 0.00 0.00 66 1013.8
20260501180558 21 243 4.8 12.9 0.00 0.00 0.00 63 1013.8
20260501180517 21 131 4.8 12.9 0.00 0.00 0.00 65 1013.8
20260501180443 21 243 4.8 12.9 0.00 0.00 0.00 64 1013.8
20260501180312 21 240 4.8 12.9 0.00 0.00 0.00 63 1013.8
20260501180211 21 225 4.8 12.9 0.00 0.00 0.00 63 1013.8
20260501180111 21 195 3.2 12.9 0.00 0.00 0.00 64 1013.8
20260501180010 21 141 3.2 9.7 0.00 0.00 0.00 64 1013.8
20260501175907 21 168 3.2 9.7 0.00 0.00 0.00 64 1013.8
20260501175829 21 181 3.2 9.7 0.00 0.00 0.00 64 1013.8
20260501175806 21 224 3.2 9.7 0.00 0.00 0.00 64 1013.8
20260501175706 21 235 3.2 9.7 0.00 0.00 0.00 64 1013.8
20260501175606 21 200 3.2 9.7 0.00 0.00 0.00 65 1013.8
20260501175553 21 232 3.2 11.3 0.00 0.00 0.00 65 1013.8
20260501175504 21 193 3.2 11.3 0.00 0.00 0.00 65 1013.8
20260501175430 21 217 3.2 11.3 0.00 0.00 0.00 65 1013.8
20260501175306 21 236 3.2 11.3 0.00 0.00 0.00 65 1013.8
20260501175202 21 235 3.2 11.3 0.00 0.00 0.00 66 1013.8
20260501175100 21 225 3.2 11.3 0.00 0.00 0.00 66 1013.8
20260501174958 21 131 3.2 11.3 0.00 0.00 0.00 65 1013.8
20260501174852 21 129 3.2 11.3 0.00 0.00 0.00 65 1013.8
20260501174815 21 204 3.2 11.3 0.00 0.00 0.00 65 1013.8
20260501174752 21 223 3.2 11.3 0.00 0.00 0.00 65 1013.8
20260501174652 21 233 3.2 11.3 0.00 0.00 0.00 65 1013.8
20260501174552 21 207 1.6 8.0 0.00 0.00 0.00 65 1013.8
20260501174452 21 174 3.2 9.7 0.00 0.00 0.00 65 1013.8
20260501174346 21 126 1.6 9.7 0.00 0.00 0.00 67 1013.8
20260501174309 21 143 3.2 9.7 0.00 0.00 0.00 67 1013.8
20260501174247 21 132 3.2 9.7 0.00 0.00 0.00 67 1013.7
20260501174146 21 133 3.2 9.7 0.00 0.00 0.00 68 1013.8
20260501174046 20 133 3.2 9.7 0.00 0.00 0.00 68 1013.8
20260501174025 20 224 3.2 9.7 0.00 0.00 0.00 68 1013.8
20260501173946 20 132 3.2 9.7 0.00 0.00 0.00 68 1013.7
20260501173913 20 132 3.2 9.7 0.00 0.00 0.00 68 1013.8
20260501173740 20 172 3.2 9.7 0.00 0.00 0.00 68 1013.7
20260501173640 20 232 3.2 9.7 0.00 0.00 0.00 66 1013.7
20260501173540 20 236 3.2 9.7 0.00 0.00 0.00 67 1013.7
20260501173520 20 224 3.2 9.7 0.00 0.00 0.00 68 1013.7
20260501173441 20 215 3.2 9.7 0.00 0.00 0.00 67 1013.7
20260501173408 20 235 3.2 9.7 0.00 0.00 0.00 68 1013.7
20260501173237 20 253 3.2 9.7 0.00 0.00 0.00 68 1013.7
20260501173136 20 194 3.2 9.7 0.00 0.00 0.00 67 1013.7
20260501173036 20 235 3.2 9.7 0.00 0.00 0.00 68 1013.7
20260501172935 20 217 3.2 9.7 0.00 0.00 0.00 68 1013.7
20260501172830 20 217 3.2 9.7 0.00 0.00 0.00 68 1013.7
20260501172751 20 233 3.2 9.7 0.00 0.00 0.00 67 1013.7
20260501172730 20 225 1.6 9.7 0.00 0.00 0.00 67 1013.8
20260501172630 20 221 1.6 9.7 0.00 0.00 0.00 68 1013.7
20260501172531 20 217 1.6 9.7 0.00 0.00 0.00 67 1013.7
20260501172428 20 212 3.2 9.7 0.00 0.00 0.00 67 1013.7
20260501172324 20 212 3.2 9.7 0.00 0.00 0.00 67 1013.7
20260501172244 20 210 3.2 9.7 0.00 0.00 0.00 67 1013.7
20260501172228 20 195 3.2 9.7 0.00 0.00 0.00 67 1013.7
20260501172123 20 163 1.6 9.7 0.00 0.00 0.00 68 1013.7
20260501172023 20 124 1.6 9.7 0.00 0.00 0.00 68 1013.7
20260501171922 20 236 3.2 9.7 0.00 0.00 0.00 69 1013.7
20260501171822 20 236 3.2 9.7 0.00 0.00 0.00 68 1013.7
20260501171720 20 214 3.2 9.7 0.00 0.00 0.00 68 1013.7
20260501171621 20 275 3.2 9.7 0.00 0.00 0.00 68 1013.7
20260501171518 20 235 3.2 9.7 0.00 0.00 0.00 68 1013.7
20260501171416 20 235 4.8 9.7 0.00 0.00 0.00 67 1013.8
20260501171311 20 221 4.8 9.7 0.00 0.00 0.00 69 1013.8
20260501171211 20 158 4.8 9.7 0.00 0.00 0.00 69 1013.7
20260501171110 19 166 4.8 8.0 0.00 0.00 0.00 70 1013.7
20260501171011 19 143 4.8 8.0 0.00 0.00 0.00 69 1013.8
20260501170910 19 131 4.8 8.0 0.00 0.00 0.00 69 1013.7
20260501170808 19 134 4.8 8.0 0.00 0.00 0.00 69 1013.8
20260501170730 19 236 4.8 8.0 0.00 0.00 0.00 69 1013.8
20260501170708 19 211 4.8 8.0 0.00 0.00 0.00 69 1013.8
20260501170608 19 139 4.8 8.0 0.00 0.00 0.00 69 1013.8
20260501170506 19 150 4.8 8.0 0.00 0.00 0.00 69 1013.8
20260501170405 19 134 4.8 8.0 0.00 0.00 0.00 70 1013.8
20260501170259 19 138 3.2 8.0 0.00 0.00 0.00 70 1013.8
20260501170220 19 207 3.2 8.0 0.00 0.00 0.00 70 1013.7
20260501170158 19 131 3.2 8.0 0.00 0.00 0.00 70 1013.7
20260501170058 19 139 3.2 8.0 0.00 0.00 0.00 70 1013.8
20260501165958 19 238 3.2 9.7 0.00 0.00 0.00 71 1013.8
20260501165858 19 159 3.2 9.7 0.00 0.00 0.00 71 1013.7
20260501165755 19 200 3.2 9.7 0.00 0.00 0.00 71 1013.7
20260501165714 19 168 3.2 9.7 0.00 0.00 0.00 71 1013.7
20260501165655 19 197 3.2 9.7 0.00 0.00 0.00 71 1013.7
20260501165554 18 150 3.2 9.7 0.00 0.00 0.00 71 1013.7
20260501165454 18 219 3.2 9.7 0.00 0.00 0.00 71 1013.8
20260501165352 18 226 3.2 9.7 0.00 0.00 0.00 70 1013.7
20260501165246 19 226 3.2 9.7 0.00 0.00 0.00 71 1013.8
20260501165210 18 211 4.8 9.7 0.00 0.00 0.00 71 1013.8
20260501165147 18 143 4.8 9.7 0.00 0.00 0.00 71 1013.8
20260501165046 18 146 4.8 9.7 0.00 0.00 0.00 71 1013.8
20260501164946 18 211 3.2 8.0 0.00 0.00 0.00 72 1013.8
20260501164850 18 156 3.2 8.0 0.00 0.00 0.00 72 1013.9
20260501164740 18 145 3.2 8.0 0.00 0.00 0.00 72 1013.9
20260501164702 18 208 3.2 8.0 0.00 0.00 0.00 73 1013.9
20260501164641 18 217 3.2 8.0 0.00 0.00 0.00 73 1013.9
20260501164541 18 232 3.2 8.0 0.00 0.00 0.00 72 1013.9
20260501164441 18 137 3.2 8.0 0.00 0.00 0.00 72 1013.9
20260501164340 18 231 3.2 8.0 0.00 0.00 0.00 70 1013.9
20260501164234 18 238 1.6 8.0 0.00 0.00 0.00 72 1013.9
20260501164155 18 229 1.6 6.4 0.00 0.00 0.00 71 1013.9
20260501164135 18 150 1.6 6.4 0.00 0.00 0.00 71 1013.9
20260501164034 18 150 1.6 6.4 0.00 0.00 0.00 71 1013.9
20260501163934 18 204 1.6 6.4 0.00 0.00 0.00 71 1013.9
20260501163835 18 207 1.6 6.4 0.00 0.00 0.00 71 1013.9
20260501163729 18 195 1.6 6.4 0.00 0.00 0.00 71 1013.9
20260501163650 18 214 1.6 6.4 0.00 0.00 0.00 71 1013.9
20260501163628 18 218 1.6 6.4 0.00 0.00 0.00 71 1013.9
20260501163529 18 207 1.6 6.4 0.00 0.00 0.00 72 1013.9
20260501163429 18 160 1.6 4.8 0.00 0.00 0.00 72 1013.9
20260501163416 18 130 1.6 6.4 0.00 0.00 0.00 72 1014.0
20260501163328 18 130 1.6 6.4 0.00 0.00 0.00 72 1013.9
20260501163255 18 129 1.6 6.4 0.00 0.00 0.00 72 1014.0
20260501163125 18 92 1.6 8.0 0.00 0.00 0.00 72 1014.0
20260501163024 18 139 3.2 8.0 0.00 0.00 0.00 72 1014.0
20260501162924 18 181 3.2 8.0 0.00 0.00 0.00 72 1014.0
20260501162902 18 143 3.2 9.7 0.00 0.00 0.00 73 1014.0
20260501162823 18 153 3.2 9.7 0.00 0.00 0.00 73 1014.0
20260501162721 18 140 3.2 9.7 0.00 0.00 0.00 73 1013.9
20260501162616 18 149 3.2 9.7 0.00 0.00 0.00 73 1014.0
20260501162516 18 201 3.2 9.7 0.00 0.00 0.00 73 1014.0
20260501162416 18 226 1.6 9.7 0.00 0.00 0.00 72 1014.0
20260501162401 18 171 1.6 9.7 0.00 0.00 0.00 73 1014.0
20260501162316 18 146 1.6 9.7 0.00 0.00 0.00 72 1014.0
20260501162243 18 238 1.6 9.7 0.00 0.00 0.00 73 1013.9
20260501162110 18 131 1.6 9.7 0.00 0.00 0.00 72 1014.0
20260501162010 18 146 1.6 9.7 0.00 0.00 0.00 73 1014.0
20260501161910 18 163 1.6 9.7 0.00 0.00 0.00 73 1014.0
20260501161811 18 148 1.6 8.0 0.00 0.00 0.00 74 1014.0
20260501161711 17 148 1.6 8.0 0.00 0.00 0.00 75 1014.0
20260501161626 17 211 1.6 8.0 0.00 0.00 0.00 75 1014.0
20260501161608 17 211 1.6 8.0 0.00 0.00 0.00 74 1014.0
20260501161509 17 211 1.6 8.0 0.00 0.00 0.00 74 1014.0
20260501161406 17 217 1.6 8.0 0.00 0.00 0.00 74 1014.0
20260501161304 17 217 1.6 8.0 0.00 0.00 0.00 73 1014.0
20260501161159 17 217 1.6 8.0 0.00 0.00 0.00 73 1014.0
20260501161121 17 218 1.6 8.0 0.00 0.00 0.00 73 1014.0
20260501161058 17 238 1.6 8.0 0.00 0.00 0.00 73 1014.0
20260501160958 18 143 1.6 8.0 0.00 0.00 0.00 73 1013.9
20260501160858 18 177 1.6 6.4 0.00 0.00 0.00 73 1013.9
20260501160758 18 198 1.6 4.8 0.00 0.00 0.00 74 1013.9
20260501160658 17 134 1.6 6.4 0.00 0.00 0.00 75 1013.9
20260501160614 17 134 1.6 6.4 0.00 0.00 0.00 75 1013.9
20260501160557 17 141 1.6 6.4 0.00 0.00 0.00 75 1013.9
20260501160457 17 141 1.6 6.4 0.00 0.00 0.00 75 1014.0
20260501160354 17 141 1.6 6.4 0.00 0.00 0.00 76 1014.0
20260501160252 17 141 1.6 6.4 0.00 0.00 0.00 76 1014.0
20260501160146 17 100 1.6 6.4 0.00 0.00 0.00 75 1014.0
20260501160111 17 131 1.6 6.4 0.00 0.00 0.00 75 1014.0
20260501160046 17 131 1.6 6.4 0.00 0.00 0.00 75 1013.9
20260501155946 17 131 1.6 6.4 0.00 0.00 0.00 75 1014.0
20260501155847 17 199 1.6 6.4 0.00 0.00 0.00 76 1013.9
20260501155747 17 139 1.6 8.0 0.00 0.00 0.00 76 1013.9
20260501155640 17 132 1.6 8.0 0.00 0.00 0.00 76 1014.0
20260501155603 17 162 1.6 8.0 0.00 0.00 0.00 76 1014.0
20260501155540 16 139 1.6 8.0 0.00 0.00 0.00 77 1013.9
20260501155441 16 124 1.6 8.0 0.00 0.00 0.00 77 1014.0
20260501155341 16 150 1.6 8.0 0.00 0.00 0.00 77 1014.0
20260501155240 16 155 1.6 8.0 0.00 0.00 0.00 77 1014.0
20260501155138 16 150 1.6 8.0 0.00 0.00 0.00 78 1014.0
20260501155057 16 148 1.6 8.0 0.00 0.00 0.00 78 1014.0
20260501155038 16 130 1.6 8.0 0.00 0.00 0.00 78 1014.0
20260501155028 16 236 1.6 6.4 0.00 0.00 0.00 80 1013.9
20260501154939 16 200 1.6 8.0 0.00 0.00 0.00 78 1014.0
20260501154916 16 190 1.6 8.0 0.00 0.00 0.00 78 1014.0
20260501154734 16 170 1.6 6.4 0.00 0.00 0.00 79 1013.9
20260501154631 16 233 1.6 6.4 0.00 0.00 0.00 80 1013.9
20260501154528 16 224 1.6 6.4 0.00 0.00 0.00 80 1013.9
20260501154429 16 161 1.6 8.0 0.00 0.00 0.00 80 1014.0
20260501154328 16 110 1.6 8.0 0.00 0.00 0.00 80 1013.9
20260501154228 16 201 1.6 8.0 0.00 0.00 0.00 81 1013.9
20260501154128 15 150 1.6 8.0 0.00 0.00 0.00 81 1013.9
20260501154026 15 226 1.6 8.0 0.00 0.00 0.00 81 1013.9
20260501153926 15 229 1.6 8.0 0.00 0.00 0.00 81 1013.9
20260501153825 15 229 3.2 8.0 0.00 0.00 0.00 81 1013.9
20260501153723 15 229 3.2 8.0 0.00 0.00 0.00 81 1013.9
20260501153621 15 229 3.2 8.0 0.00 0.00 0.00 81 1013.9
20260501153537 15 239 3.2 8.0 0.00 0.00 0.00 81 1013.9
20260501153521 15 239 3.2 8.0 0.00 0.00 0.00 82 1013.9
20260501153421 15 236 3.2 8.0 0.00 0.00 0.00 82 1013.9
20260501153318 15 238 3.2 9.7 0.00 0.00 0.00 82 1013.9
20260501153216 15 190 3.2 9.7 0.00 0.00 0.00 82 1013.9
20260501153112 15 214 4.8 9.7 0.00 0.00 0.00 82 1013.9
20260501153032 15 146 4.8 9.7 0.00 0.00 0.00 82 1014.0
20260501153013 15 149 4.8 9.7 0.00 0.00 0.00 82 1014.0
20260501152913 15 238 4.8 9.7 0.00 0.00 0.00 82 1013.9
20260501152813 15 225 4.8 9.7 0.00 0.00 0.00 82 1013.9
20260501152710 15 226 4.8 9.7 0.00 0.00 0.00 82 1014.0
20260501152604 15 221 4.8 9.7 0.00 0.00 0.00 82 1013.9
20260501152528 15 198 4.8 9.7 0.00 0.00 0.00 82 1014.0
20260501152504 15 215 4.8 9.7 0.00 0.00 0.00 82 1014.0
20260501152404 15 222 3.2 9.7 0.00 0.00 0.00 82 1013.9
20260501152306 15 250 3.2 8.0 0.00 0.00 0.00 82 1013.9
20260501152204 15 211 3.2 8.0 0.00 0.00 0.00 82 1013.9
20260501152058 15 193 3.2 12.9 0.00 0.00 0.00 82 1013.9
20260501152021 15 225 3.2 12.9 0.00 0.00 0.00 83 1013.9
20260501151958 15 260 3.2 12.9 0.00 0.00 0.00 83 1013.9
20260501151859 15 204 4.8 12.9 0.00 0.00 0.00 84 1013.9
20260501151758 15 140 4.8 12.9 0.00 0.00 0.00 84 1013.9
20260501151658 14 145 4.8 12.9 0.00 0.00 0.00 84 1013.9
20260501151554 14 148 4.8 12.9 0.00 0.00 0.00 84 1013.8
20260501151515 14 219 4.8 12.9 0.00 0.00 0.00 84 1013.8
20260501151458 14 228 4.8 12.9 0.00 0.00 0.00 83 1013.8
20260501151452 14 219 4.8 12.9 0.00 0.00 0.00 84 1013.8
20260501151352 14 239 4.8 12.9 0.00 0.00 0.00 84 1013.8
20260501151337 14 160 4.8 12.9 0.00 0.00 0.00 84 1013.8
20260501151152 14 235 4.8 12.9 0.00 0.00 0.00 84 1013.8
20260501151118 14 253 4.8 12.9 0.00 0.00 0.00 84 1013.8
20260501150946 14 218 4.8 12.9 0.00 0.00 0.00 84 1013.8
20260501150846 14 235 3.2 12.9 0.00 0.00 0.00 84 1013.7
20260501150747 14 252 3.2 12.9 0.00 0.00 0.00 84 1013.7
20260501150542 14 235 4.8 12.9 0.00 0.00 0.00 84 1013.7
20260501150515 14 235 4.8 12.9 0.00 0.00 0.00 83 1013.7
20260501150440 14 229 3.2 12.9 0.00 0.00 0.00 84 1013.8
20260501150340 14 241 3.2 12.9 0.00 0.00 0.00 84 1013.7
20260501150240 14 235 3.2 12.9 0.00 0.00 0.00 84 1013.7
20260501150140 14 228 4.8 12.9 0.00 0.00 0.00 84 1013.7
20260501150036 14 136 4.8 12.9 0.00 0.00 0.00 84 1013.7
20260501145956 14 181 4.8 12.9 0.00 0.00 0.00 84 1013.7
20260501145936 14 231 4.8 12.9 0.00 0.00 0.00 84 1013.7
20260501145842 14 236 4.8 12.9 0.00 0.00 0.00 85 1013.7
20260501145634 13 236 6.4 12.9 0.00 0.00 0.00 84 1013.7
20260501145529 13 239 6.4 12.9 0.00 0.00 0.00 84 1013.7
20260501145450 13 225 6.4 12.9 0.00 0.00 0.00 84 1013.7
20260501145329 13 225 6.4 12.9 0.00 0.00 0.00 84 1013.6
20260501145228 13 215 6.4 12.9 0.00 0.00 0.00 84 1013.7
20260501145128 13 192 6.4 12.9 0.00 0.00 0.00 85 1013.7
20260501145022 13 158 6.4 12.9 0.00 0.00 0.00 85 1013.7
20260501144945 13 158 6.4 12.9 0.00 0.00 0.00 85 1013.6
20260501144922 13 207 6.4 12.9 0.00 0.00 0.00 85 1013.6
20260501144823 13 156 6.4 12.9 0.00 0.00 0.00 84 1013.6
20260501144723 13 212 4.8 12.9 0.00 0.00 0.00 84 1013.6
20260501144622 13 260 4.8 12.9 0.00 0.00 0.00 85 1013.6
20260501144516 13 181 4.8 12.9 0.00 0.00 0.00 84 1013.6
20260501144437 13 224 4.8 12.9 0.00 0.00 0.00 84 1013.5
20260501144416 13 162 4.8 12.9 0.00 0.00 0.00 84 1013.5
20260501144317 13 215 4.8 12.9 0.00 0.00 0.00 84 1013.6
20260501144216 13 169 4.8 12.9 0.00 0.00 0.00 84 1013.6
20260501144116 13 153 4.8 14.5 0.00 0.00 0.00 85 1013.6
20260501144010 13 208 4.8 14.5 0.00 0.00 0.00 85 1013.5
20260501143910 13 226 6.4 14.5 0.00 0.00 0.00 85 1013.5
20260501143810 13 229 6.4 14.5 0.00 0.00 0.00 85 1013.5
20260501143710 13 286 6.4 14.5 0.00 0.00 0.00 85 1013.5
20260501143611 13 165 6.4 14.5 0.00 0.00 0.00 85 1013.5
20260501143504 13 230 6.4 14.5 0.00 0.00 0.00 85 1013.5
20260501143427 13 242 6.4 14.5 0.00 0.00 0.00 85 1013.5
20260501143304 13 235 6.4 14.5 0.00 0.00 0.00 85 1013.5
20260501143204 13 200 8.0 16.1 0.00 0.00 0.00 85 1013.5
20260501143105 13 221 8.0 16.1 0.00 0.00 0.00 85 1013.4
20260501142959 13 217 8.0 16.1 0.00 0.00 0.00 85 1013.4
20260501142921 13 235 8.0 16.1 0.00 0.00 0.00 86 1013.4
20260501142858 13 195 8.0 16.1 0.00 0.00 0.00 86 1013.4
20260501142758 13 234 8.0 16.1 0.00 0.00 0.00 86 1013.4
20260501142658 13 197 8.0 16.1 0.00 0.00 0.00 86 1013.3
20260501142600 13 228 8.0 16.1 0.00 0.00 0.00 86 1013.4
20260501142452 13 153 8.0 16.1 0.00 0.00 0.00 86 1013.3
20260501142416 13 231 8.0 16.1 0.00 0.00 0.00 86 1013.3
20260501142353 13 257 8.0 16.1 0.00 0.00 0.00 86 1013.3
20260501142252 13 232 8.0 16.1 0.00 0.00 0.00 86 1013.3
20260501142152 13 255 8.0 14.5 0.00 0.00 0.00 85 1013.3
20260501142052 13 243 8.0 14.5 0.00 0.00 0.00 86 1013.2
20260501141947 13 230 6.4 14.5 0.00 0.00 0.00 85 1013.2
20260501141909 13 218 6.4 14.5 0.00 0.00 0.00 85 1013.1
20260501141846 13 215 6.4 14.5 0.00 0.00 0.00 85 1013.2
20260501141837 13 231 6.4 12.9 0.00 0.00 0.00 85 1013.1
20260501141747 13 225 6.4 14.5 0.00 0.00 0.00 85 1013.2
20260501141729 13 214 6.4 14.5 0.00 0.00 0.00 85 1013.2
20260501141546 13 239 6.4 12.9 0.00 0.00 0.00 85 1013.2
20260501141512 13 233 6.4 12.9 0.00 0.00 0.00 85 1013.1
20260501141340 13 248 6.4 12.9 0.00 0.00 0.00 85 1013.2
20260501141241 13 255 6.4 14.5 0.00 0.00 0.00 85 1013.1
20260501141140 13 177 6.4 14.5 0.00 0.00 0.00 85 1013.1
20260501141040 13 136 6.4 14.5 0.00 0.00 0.00 85 1013.1
20260501140934 13 161 6.4 14.5 0.00 0.00 0.00 85 1013.1
20260501140856 13 246 6.4 14.5 0.00 0.00 0.00 85 1013.1
20260501140838 13 218 6.4 14.5 0.00 0.00 0.00 85 1013.1
20260501140735 13 245 6.4 14.5 0.00 0.00 0.00 85 1013.0
20260501140635 13 236 6.4 14.5 0.00 0.00 0.00 85 1013.0
20260501140534 13 248 6.4 14.5 0.00 0.00 0.00 85 1013.0
20260501140349 13 203 6.4 14.5 0.00 0.00 0.00 85 1013.0
20260501140330 13 210 6.4 14.5 0.00 0.00 0.00 85 1013.0
20260501140230 13 256 6.4 14.5 0.00 0.00 0.00 85 1013.0
20260501140130 13 245 6.4 17.7 0.00 0.00 0.00 85 1012.9
20260501140027 13 233 6.4 17.7 0.00 0.00 0.00 85 1012.9
20260501135924 13 233 6.4 17.7 0.00 0.00 0.00 85 1012.9
20260501135845 13 245 6.4 17.7 0.00 0.00 0.00 85 1012.9
20260501135822 13 250 6.4 17.7 0.00 0.00 0.00 85 1012.9
20260501135723 13 184 6.4 17.7 0.00 0.00 0.00 85 1012.9
20260501135623 13 188 4.8 17.7 0.00 0.00 0.00 85 1012.9
20260501135523 13 257 4.8 17.7 0.00 0.00 0.00 85 1012.8
20260501135417 13 217 4.8 17.7 0.00 0.00 0.00 84 1012.8
20260501135317 13 238 3.2 17.7 0.00 0.00 0.00 84 1012.8
20260501135216 13 262 3.2 9.7 0.00 0.00 0.00 84 1012.8
20260501135116 13 211 3.2 9.7 0.00 0.00 0.00 84 1012.8
20260501135017 13 239 3.2 9.7 0.00 0.00 0.00 84 1012.8
20260501134910 13 172 3.2 9.7 0.00 0.00 0.00 84 1012.8
20260501134836 13 130 3.2 9.7 0.00 0.00 0.00 84 1012.8
20260501134810 13 131 3.2 9.7 0.00 0.00 0.00 84 1012.8
20260501134710 13 248 3.2 9.7 0.00 0.00 0.00 84 1012.8
20260501134610 13 226 3.2 9.7 0.00 0.00 0.00 85 1012.8
20260501134510 13 215 3.2 9.7 0.00 0.00 0.00 85 1012.8
20260501134410 13 236 3.2 9.7 0.00 0.00 0.00 85 1012.8
20260501134309 13 158 3.2 9.7 0.00 0.00 0.00 85 1012.8
20260501134207 13 233 3.2 9.7 0.00 0.00 0.00 85 1012.8
20260501134107 13 200 3.2 9.7 0.00 0.00 0.00 85 1012.8
20260501134004 13 236 3.2 9.7 0.00 0.00 0.00 85 1012.8
20260501133858 13 231 3.2 9.7 0.00 0.00 0.00 85 1012.8
20260501133822 13 253 3.2 9.7 0.00 0.00 0.00 85 1012.8
20260501133759 13 232 3.2 9.7 0.00 0.00 0.00 85 1012.8
20260501133731 12 248 3.2 11.3 0.00 0.00 0.00 85 1012.5
20260501133658 13 235 3.2 8.0 0.00 0.00 0.00 85 1012.8
20260501133616 13 287 4.8 8.0 0.00 0.00 0.00 85 1012.8
20260501133458 13 218 4.8 9.7 0.00 0.00 0.00 85 1012.7
20260501133352 13 240 4.8 11.3 0.00 0.00 0.00 85 1012.7